Time,TemperatureF,DewpointF,PressureIn,WindDirection,WindDirectionDegrees,WindSpeedMPH,WindSpeedGustMPH,Humidity,HourlyPrecipIn,Conditions,Clouds,dailyrainin,SoftwareType,DateUTC
2013-10-02 00:00:00,61.8,59.1,29.94,South,190,0.0,0.0,91,0.00,,,0.00,Wunderground v.1.15,2013-10-02 05:00:00,
2013-10-02 00:01:00,61.7,59.0,29.94,South,190,0.0,0.0,91,0.00,,,0.00,Wunderground v.1.15,2013-10-02 05:01:00,
2013-10-02 00:03:00,61.7,59.0,29.94,South,190,0.0,0.0,91,0.00,,,0.00,Wunderground v.1.15,2013-10-02 05:03:00,
2013-10-02 00:04:00,61.7,59.0,29.94,South,190,0.0,0.0,91,0.00,,,0.00,Wunderground v.1.15,2013-10-02 05:04:00,
2013-10-02 00:05:00,61.6,58.9,29.94,South,190,0.0,0.0,91,0.00,,,0.00,Wunderground v.1.15,2013-10-02 05:05:00,
2013-10-02 00:09:00,61.6,58.9,29.94,South,190,0.0,0.0,91,0.00,,,0.00,Wunderground v.1.15,2013-10-02 05:09:00,
2013-10-02 00:10:00,61.6,58.9,29.94,South,190,0.0,0.0,91,0.00,,,0.00,Wunderground v.1.15,2013-10-02 05:10:00,
2013-10-02 00:11:00,61.5,59.2,29.94,South,190,0.0,0.0,92,0.00,,,0.00,Wunderground v.1.15,2013-10-02 05:11:00,
2013-10-02 00:12:00,61.5,59.2,29.94,South,190,0.0,0.0,92,0.00,,,0.00,Wunderground v.1.15,2013-10-02 05:12:00,
2013-10-02 00:13:00,61.5,59.2,29.94,South,190,0.0,0.0,92,0.00,,,0.00,Wunderground v.1.15,2013-10-02 05:13:00,
2013-10-02 00:17:00,61.4,59.1,29.94,South,190,0.0,0.0,92,0.00,,,0.00,Wunderground v.1.15,2013-10-02 05:17:00,
2013-10-02 00:19:00,61.4,59.1,29.94,South,190,0.0,0.0,92,0.00,,,0.00,Wunderground v.1.15,2013-10-02 05:19:00,
2013-10-02 00:21:00,61.4,59.1,29.94,South,190,0.0,0.0,92,0.00,,,0.00,Wunderground v.1.15,2013-10-02 05:21:00,
2013-10-02 00:23:00,61.3,59.0,29.94,South,190,0.0,0.0,92,0.00,,,0.00,Wunderground v.1.15,2013-10-02 05:23:00,
2013-10-02 00:24:00,61.3,59.0,29.94,South,190,0.0,0.0,92,0.00,,,0.00,Wunderground v.1.15,2013-10-02 05:24:00,
2013-10-02 00:25:00,61.3,59.0,29.94,South,190,0.0,0.0,92,0.00,,,0.00,Wunderground v.1.15,2013-10-02 05:25:00,
2013-10-02 00:26:00,61.2,58.9,29.94,South,190,0.0,0.0,92,0.00,,,0.00,Wunderground v.1.15,2013-10-02 05:26:00,
2013-10-02 00:27:00,61.2,58.9,29.94,South,190,0.0,0.0,92,0.00,,,0.00,Wunderground v.1.15,2013-10-02 05:27:00,
2013-10-02 00:28:00,61.2,58.9,29.94,South,190,0.0,0.0,92,0.00,,,0.00,Wunderground v.1.15,2013-10-02 05:28:00,
2013-10-02 00:32:00,61.1,58.8,29.94,South,190,0.0,0.0,92,0.00,,,0.00,Wunderground v.1.15,2013-10-02 05:32:00,
2013-10-02 00:33:00,61.1,59.1,29.94,South,190,0.0,0.0,93,0.00,,,0.00,Wunderground v.1.15,2013-10-02 05:33:00,
2013-10-02 00:35:00,61.1,59.1,29.94,South,190,0.0,0.0,93,0.00,,,0.00,Wunderground v.1.15,2013-10-02 05:35:00,
2013-10-02 00:36:00,61.1,58.8,29.94,South,190,0.0,0.0,92,0.00,,,0.00,Wunderground v.1.15,2013-10-02 05:36:00,
2013-10-02 00:37:00,61.1,58.8,29.94,South,190,0.0,0.0,92,0.00,,,0.00,Wunderground v.1.15,2013-10-02 05:37:00,
2013-10-02 00:38:00,61.0,58.7,29.94,South,190,0.0,0.0,92,0.00,,,0.00,Wunderground v.1.15,2013-10-02 05:38:00,
2013-10-02 00:39:00,61.0,58.7,29.94,South,190,0.0,0.0,92,0.00,,,0.00,Wunderground v.1.15,2013-10-02 05:39:00,
2013-10-02 00:40:00,61.0,58.7,29.94,South,190,0.0,0.0,92,0.00,,,0.00,Wunderground v.1.15,2013-10-02 05:40:00,
2013-10-02 00:41:00,61.0,58.7,29.94,South,190,0.0,0.0,92,0.00,,,0.00,Wunderground v.1.15,2013-10-02 05:41:00,
2013-10-02 00:43:00,61.0,58.7,29.94,South,190,0.0,0.0,92,0.00,,,0.00,Wunderground v.1.15,2013-10-02 05:43:00,
2013-10-02 00:46:00,60.9,58.6,29.95,South,190,0.0,0.0,92,0.00,,,0.00,Wunderground v.1.15,2013-10-02 05:46:00,
2013-10-02 00:47:00,60.9,58.6,29.95,South,190,0.0,0.0,92,0.00,,,0.00,Wunderground v.1.15,2013-10-02 05:47:00,
2013-10-02 00:49:00,60.8,58.5,29.95,South,190,0.0,0.0,92,0.00,,,0.00,Wunderground v.1.15,2013-10-02 05:49:00,
2013-10-02 00:51:00,60.8,58.8,29.95,South,190,0.0,0.0,93,0.00,,,0.00,Wunderground v.1.15,2013-10-02 05:51:00,
2013-10-02 00:53:00,60.9,58.9,29.95,South,190,0.0,0.0,93,0.00,,,0.00,Wunderground v.1.15,2013-10-02 05:53:00,
2013-10-02 00:54:00,60.9,58.9,29.95,South,190,0.0,0.0,93,0.00,,,0.00,Wunderground v.1.15,2013-10-02 05:54:00,
2013-10-02 00:58:00,60.8,58.5,29.95,South,190,0.0,0.0,92,0.00,,,0.00,Wunderground v.1.15,2013-10-02 05:58:00,
2013-10-02 00:59:00,60.7,58.4,29.95,South,190,0.0,0.0,92,0.00,,,0.00,Wunderground v.1.15,2013-10-02 05:59:00,
2013-10-02 01:01:00,60.5,58.2,29.95,South,190,0.0,0.0,92,0.00,,,0.00,Wunderground v.1.15,2013-10-02 06:01:00,
2013-10-02 01:02:00,60.5,58.2,29.95,South,190,0.0,0.0,92,0.00,,,0.00,Wunderground v.1.15,2013-10-02 06:02:00,
2013-10-02 01:04:00,60.4,58.1,29.95,South,190,0.0,0.0,92,0.00,,,0.00,Wunderground v.1.15,2013-10-02 06:04:00,
2013-10-02 01:06:00,60.4,58.4,29.95,South,190,0.0,0.0,93,0.00,,,0.00,Wunderground v.1.15,2013-10-02 06:06:00,
2013-10-02 01:07:00,60.5,58.5,29.95,South,190,0.0,0.0,93,0.00,,,0.00,Wunderground v.1.15,2013-10-02 06:07:00,
2013-10-02 01:09:00,60.5,58.5,29.95,South,190,0.0,0.0,93,0.00,,,0.00,Wunderground v.1.15,2013-10-02 06:09:00,
2013-10-02 01:10:00,60.5,58.5,29.95,South,190,0.0,0.0,93,0.00,,,0.00,Wunderground v.1.15,2013-10-02 06:10:00,
2013-10-02 01:12:00,60.5,58.5,29.95,South,190,0.0,0.0,93,0.00,,,0.00,Wunderground v.1.15,2013-10-02 06:12:00,
2013-10-02 01:14:00,60.5,58.5,29.95,South,190,0.0,0.0,93,0.00,,,0.00,Wunderground v.1.15,2013-10-02 06:14:00,
2013-10-02 01:15:00,60.5,58.5,29.95,South,190,0.0,0.0,93,0.00,,,0.00,Wunderground v.1.15,2013-10-02 06:15:00,
2013-10-02 01:19:00,60.4,58.4,29.95,South,190,0.0,0.0,93,0.00,,,0.00,Wunderground v.1.15,2013-10-02 06:19:00,
2013-10-02 01:20:00,60.4,58.4,29.95,South,190,0.0,0.0,93,0.00,,,0.00,Wunderground v.1.15,2013-10-02 06:20:00,
2013-10-02 01:21:00,60.4,58.4,29.95,South,190,0.0,0.0,93,0.00,,,0.00,Wunderground v.1.15,2013-10-02 06:21:00,
2013-10-02 01:24:00,60.3,58.3,29.96,South,190,0.0,0.0,93,0.00,,,0.00,Wunderground v.1.15,2013-10-02 06:24:00,
2013-10-02 01:25:00,60.3,58.3,29.96,South,190,0.0,0.0,93,0.00,,,0.00,Wunderground v.1.15,2013-10-02 06:25:00,
2013-10-02 01:30:00,60.2,58.2,29.96,South,190,0.0,0.0,93,0.00,,,0.00,Wunderground v.1.15,2013-10-02 06:30:00,
2013-10-02 01:31:00,60.2,58.2,29.96,South,190,0.0,0.0,93,0.00,,,0.00,Wunderground v.1.15,2013-10-02 06:31:00,
2013-10-02 01:32:00,60.2,58.2,29.97,South,190,0.0,0.0,93,0.00,,,0.00,Wunderground v.1.15,2013-10-02 06:32:00,
2013-10-02 01:34:00,60.1,58.1,29.97,South,190,0.0,0.0,93,0.00,,,0.00,Wunderground v.1.15,2013-10-02 06:34:00,
2013-10-02 01:35:00,60.2,58.2,29.96,South,190,0.0,0.0,93,0.00,,,0.00,Wunderground v.1.15,2013-10-02 06:35:00,
2013-10-02 01:37:00,60.1,58.1,29.97,South,190,0.0,0.0,93,0.00,,,0.00,Wunderground v.1.15,2013-10-02 06:37:00,
2013-10-02 01:40:00,60.2,58.2,29.97,South,190,0.0,0.0,93,0.00,,,0.00,Wunderground v.1.15,2013-10-02 06:40:00,
2013-10-02 01:41:00,60.2,58.2,29.97,South,190,0.0,0.0,93,0.00,,,0.00,Wunderground v.1.15,2013-10-02 06:41:00,
2013-10-02 01:42:00,60.2,58.2,29.97,South,190,0.0,0.0,93,0.00,,,0.00,Wunderground v.1.15,2013-10-02 06:42:00,
2013-10-02 01:44:00,60.2,58.2,29.97,South,190,0.0,0.0,93,0.00,,,0.00,Wunderground v.1.15,2013-10-02 06:44:00,
2013-10-02 01:45:00,60.2,58.2,29.97,South,190,0.0,0.0,93,0.00,,,0.00,Wunderground v.1.15,2013-10-02 06:45:00,
2013-10-02 01:47:00,60.1,58.1,29.97,South,190,0.0,0.0,93,0.00,,,0.00,Wunderground v.1.15,2013-10-02 06:47:00,
2013-10-02 01:51:00,60.1,58.1,29.97,South,190,0.0,0.0,93,0.00,,,0.00,Wunderground v.1.15,2013-10-02 06:51:00,
2013-10-02 01:52:00,60.1,58.1,29.97,South,190,0.0,0.0,93,0.00,,,0.00,Wunderground v.1.15,2013-10-02 06:52:00,
2013-10-02 01:57:00,60.1,58.1,29.97,South,190,0.0,0.0,93,0.00,,,0.00,Wunderground v.1.15,2013-10-02 06:57:00,
2013-10-02 01:58:00,60.2,58.5,29.97,South,190,0.0,0.0,94,0.00,,,0.00,Wunderground v.1.15,2013-10-02 06:58:00,
2013-10-02 01:59:00,60.2,58.5,29.97,South,190,0.0,0.0,94,0.00,,,0.00,Wunderground v.1.15,2013-10-02 06:59:00,
2013-10-02 02:01:00,60.3,58.6,29.97,South,190,0.0,0.0,94,0.00,,,0.00,Wunderground v.1.15,2013-10-02 07:01:00,
2013-10-02 02:03:00,60.3,58.6,29.97,South,190,0.0,0.0,94,0.00,,,0.00,Wunderground v.1.15,2013-10-02 07:03:00,
2013-10-02 02:04:00,60.3,58.3,29.97,South,190,0.0,0.0,93,0.00,,,0.00,Wunderground v.1.15,2013-10-02 07:04:00,
2013-10-02 02:05:00,60.3,58.3,29.97,South,190,0.0,0.0,93,0.00,,,0.00,Wunderground v.1.15,2013-10-02 07:05:00,
2013-10-02 02:07:00,60.3,58.3,29.97,South,190,0.0,0.0,93,0.00,,,0.00,Wunderground v.1.15,2013-10-02 07:07:00,
2013-10-02 02:08:00,60.3,58.3,29.97,South,190,0.0,0.0,93,0.00,,,0.00,Wunderground v.1.15,2013-10-02 07:08:00,
2013-10-02 02:10:00,60.3,58.3,29.97,South,190,0.0,0.0,93,0.00,,,0.00,Wunderground v.1.15,2013-10-02 07:10:00,
2013-10-02 02:13:00,60.3,58.3,29.98,South,190,0.0,0.0,93,0.00,,,0.00,Wunderground v.1.15,2013-10-02 07:13:00,
2013-10-02 02:14:00,60.3,58.3,29.98,South,190,0.0,0.0,93,0.00,,,0.00,Wunderground v.1.15,2013-10-02 07:14:00,
2013-10-02 02:16:00,60.4,58.7,29.98,South,190,0.0,0.0,94,0.00,,,0.00,Wunderground v.1.15,2013-10-02 07:16:00,
2013-10-02 02:19:00,60.5,58.8,29.98,South,190,0.0,0.0,94,0.00,,,0.00,Wunderground v.1.15,2013-10-02 07:19:00,
2013-10-02 02:20:00,60.6,58.9,29.98,South,190,0.0,0.0,94,0.00,,,0.00,Wunderground v.1.15,2013-10-02 07:20:00,
2013-10-02 02:21:00,60.7,59.0,29.98,South,190,0.0,0.0,94,0.00,,,0.00,Wunderground v.1.15,2013-10-02 07:21:00,
2013-10-02 02:22:00,60.7,59.0,29.98,South,190,0.0,0.0,94,0.00,,,0.00,Wunderground v.1.15,2013-10-02 07:22:00,
2013-10-02 02:25:00,60.9,59.5,29.98,South,190,0.0,0.0,95,0.00,,,0.00,Wunderground v.1.15,2013-10-02 07:25:00,
2013-10-02 02:26:00,61.0,59.3,29.98,South,190,0.0,0.0,94,0.00,,,0.00,Wunderground v.1.15,2013-10-02 07:26:00,
2013-10-02 02:28:00,61.0,59.3,29.98,South,190,0.0,0.0,94,0.00,,,0.00,Wunderground v.1.15,2013-10-02 07:28:00,
2013-10-02 02:29:00,61.1,59.4,29.98,South,190,0.0,0.0,94,0.00,,,0.00,Wunderground v.1.15,2013-10-02 07:29:00,
2013-10-02 02:32:00,61.1,59.4,29.98,South,190,0.0,0.0,94,0.00,,,0.00,Wunderground v.1.15,2013-10-02 07:32:00,
2013-10-02 02:34:00,61.1,59.4,29.98,South,190,0.0,0.0,94,0.00,,,0.00,Wunderground v.1.15,2013-10-02 07:34:00,
2013-10-02 02:35:00,61.1,59.4,29.98,South,190,0.0,0.0,94,0.00,,,0.00,Wunderground v.1.15,2013-10-02 07:35:00,
2013-10-02 02:38:00,61.1,59.4,29.98,South,190,0.0,0.0,94,0.00,,,0.00,Wunderground v.1.15,2013-10-02 07:38:00,
2013-10-02 02:39:00,61.1,59.4,29.98,South,190,0.0,0.0,94,0.00,,,0.00,Wunderground v.1.15,2013-10-02 07:39:00,
2013-10-02 02:41:00,61.1,59.4,29.98,South,190,0.0,0.0,94,0.00,,,0.00,Wunderground v.1.15,2013-10-02 07:41:00,
2013-10-02 02:43:00,61.1,59.4,29.98,South,190,0.0,0.0,94,0.00,,,0.00,Wunderground v.1.15,2013-10-02 07:43:00,
2013-10-02 02:44:00,61.1,59.4,29.98,South,190,0.0,0.0,94,0.00,,,0.00,Wunderground v.1.15,2013-10-02 07:44:00,
2013-10-02 02:47:00,61.0,59.0,29.98,South,190,0.0,0.0,93,0.00,,,0.00,Wunderground v.1.15,2013-10-02 07:47:00,
2013-10-02 02:49:00,61.0,59.0,29.98,South,190,0.0,0.0,93,0.00,,,0.00,Wunderground v.1.15,2013-10-02 07:49:00,
2013-10-02 02:50:00,60.9,58.9,29.98,South,190,0.0,0.0,93,0.00,,,0.00,Wunderground v.1.15,2013-10-02 07:50:00,
2013-10-02 02:51:00,60.9,58.9,29.98,South,190,0.0,0.0,93,0.00,,,0.00,Wunderground v.1.15,2013-10-02 07:51:00,
2013-10-02 02:54:00,60.8,58.8,29.98,South,190,0.0,0.0,93,0.00,,,0.00,Wunderground v.1.15,2013-10-02 07:54:00,
2013-10-02 02:55:00,60.8,58.8,29.98,South,190,0.0,0.0,93,0.00,,,0.00,Wunderground v.1.15,2013-10-02 07:55:00,
2013-10-02 02:58:00,60.7,58.7,29.98,South,190,0.0,0.0,93,0.00,,,0.00,Wunderground v.1.15,2013-10-02 07:58:00,
2013-10-02 03:00:00,60.7,58.7,29.98,South,190,0.0,0.0,93,0.00,,,0.00,Wunderground v.1.15,2013-10-02 08:00:00,
2013-10-02 03:01:00,60.7,59.0,29.98,South,190,0.0,0.0,94,0.00,,,0.00,Wunderground v.1.15,2013-10-02 08:01:00,
2013-10-02 03:02:00,60.7,59.0,29.98,South,190,0.0,0.0,94,0.00,,,0.00,Wunderground v.1.15,2013-10-02 08:02:00,
2013-10-02 03:03:00,60.7,59.0,29.98,South,190,0.0,0.0,94,0.00,,,0.00,Wunderground v.1.15,2013-10-02 08:03:00,
2013-10-02 03:04:00,60.7,59.0,29.98,South,190,0.0,0.0,94,0.00,,,0.00,Wunderground v.1.15,2013-10-02 08:04:00,
2013-10-02 03:08:00,60.6,58.9,29.98,South,190,0.0,0.0,94,0.00,,,0.00,Wunderground v.1.15,2013-10-02 08:08:00,
2013-10-02 03:09:00,60.6,58.9,29.98,South,190,0.0,0.0,94,0.00,,,0.00,Wunderground v.1.15,2013-10-02 08:09:00,
2013-10-02 03:11:00,60.6,58.9,29.98,South,190,0.0,0.0,94,0.00,,,0.00,Wunderground v.1.15,2013-10-02 08:11:00,
2013-10-02 03:13:00,60.6,58.9,29.98,South,190,0.0,0.0,94,0.00,,,0.00,Wunderground v.1.15,2013-10-02 08:13:00,
2013-10-02 03:14:00,60.6,58.9,29.98,South,190,0.0,0.0,94,0.00,,,0.00,Wunderground v.1.15,2013-10-02 08:14:00,
2013-10-02 03:15:00,60.6,58.9,29.98,South,190,0.0,0.0,94,0.00,,,0.00,Wunderground v.1.15,2013-10-02 08:15:00,
2013-10-02 03:18:00,60.5,58.8,29.98,South,190,0.0,0.0,94,0.00,,,0.00,Wunderground v.1.15,2013-10-02 08:18:00,
2013-10-02 03:19:00,60.6,58.9,29.98,South,190,0.0,0.0,94,0.00,,,0.00,Wunderground v.1.15,2013-10-02 08:19:00,
2013-10-02 03:20:00,60.6,58.9,29.98,South,190,0.0,0.0,94,0.00,,,0.00,Wunderground v.1.15,2013-10-02 08:20:00,
2013-10-02 03:21:00,60.6,58.9,29.98,South,190,0.0,0.0,94,0.00,,,0.00,Wunderground v.1.15,2013-10-02 08:21:00,
2013-10-02 03:24:00,60.6,58.9,29.98,South,190,0.0,0.0,94,0.00,,,0.00,Wunderground v.1.15,2013-10-02 08:24:00,
2013-10-02 03:25:00,60.6,58.9,29.98,South,190,0.0,0.0,94,0.00,,,0.00,Wunderground v.1.15,2013-10-02 08:25:00,
2013-10-02 03:26:00,60.7,59.0,29.98,South,190,0.0,0.0,94,0.00,,,0.00,Wunderground v.1.15,2013-10-02 08:26:00,
2013-10-02 03:28:00,60.7,59.0,29.98,South,190,0.0,0.0,94,0.00,,,0.00,Wunderground v.1.15,2013-10-02 08:28:00,
2013-10-02 03:29:00,60.7,59.0,29.98,South,190,0.0,0.0,94,0.00,,,0.00,Wunderground v.1.15,2013-10-02 08:29:00,
2013-10-02 03:30:00,60.7,59.0,29.98,South,190,0.0,0.0,94,0.00,,,0.00,Wunderground v.1.15,2013-10-02 08:30:00,
2013-10-02 03:31:00,60.7,59.0,29.98,South,190,0.0,0.0,94,0.00,,,0.00,Wunderground v.1.15,2013-10-02 08:31:00,
2013-10-02 03:32:00,60.7,59.0,29.98,South,190,0.0,0.0,94,0.00,,,0.00,Wunderground v.1.15,2013-10-02 08:32:00,
2013-10-02 03:33:00,60.7,59.0,29.98,South,190,0.0,0.0,94,0.00,,,0.00,Wunderground v.1.15,2013-10-02 08:33:00,
2013-10-02 03:34:00,60.7,59.0,29.98,South,190,0.0,0.0,94,0.00,,,0.00,Wunderground v.1.15,2013-10-02 08:34:00,
2013-10-02 03:35:00,60.7,59.0,29.98,South,190,0.0,0.0,94,0.00,,,0.00,Wunderground v.1.15,2013-10-02 08:35:00,
2013-10-02 03:37:00,60.8,59.1,29.98,South,190,0.0,0.0,94,0.00,,,0.00,Wunderground v.1.15,2013-10-02 08:37:00,
2013-10-02 03:39:00,60.9,59.5,29.98,South,190,0.0,0.0,95,0.00,,,0.00,Wunderground v.1.15,2013-10-02 08:39:00,
2013-10-02 03:40:00,60.9,59.5,29.98,South,190,0.0,0.0,95,0.00,,,0.00,Wunderground v.1.15,2013-10-02 08:40:00,
2013-10-02 03:43:00,61.0,59.3,29.98,South,190,0.0,0.0,94,0.00,,,0.00,Wunderground v.1.15,2013-10-02 08:43:00,
2013-10-02 03:44:00,61.0,59.3,29.98,South,190,0.0,0.0,94,0.00,,,0.00,Wunderground v.1.15,2013-10-02 08:44:00,
2013-10-02 03:45:00,61.0,59.3,29.98,South,190,0.0,0.0,94,0.00,,,0.00,Wunderground v.1.15,2013-10-02 08:45:00,
2013-10-02 03:46:00,61.0,59.3,29.98,South,190,0.0,0.0,94,0.00,,,0.00,Wunderground v.1.15,2013-10-02 08:46:00,
2013-10-02 03:49:00,60.9,59.2,29.98,South,190,0.0,0.0,94,0.00,,,0.00,Wunderground v.1.15,2013-10-02 08:49:00,
2013-10-02 03:50:00,60.9,59.2,29.98,South,190,0.0,0.0,94,0.00,,,0.00,Wunderground v.1.15,2013-10-02 08:50:00,
2013-10-02 03:53:00,60.9,59.2,29.99,South,190,0.0,0.0,94,0.00,,,0.00,Wunderground v.1.15,2013-10-02 08:53:00,
2013-10-02 03:54:00,60.9,59.2,29.99,South,190,0.0,0.0,94,0.00,,,0.00,Wunderground v.1.15,2013-10-02 08:54:00,
2013-10-02 03:55:00,60.9,59.2,29.99,South,190,0.0,0.0,94,0.00,,,0.00,Wunderground v.1.15,2013-10-02 08:55:00,
2013-10-02 03:57:00,60.8,59.1,29.99,South,190,0.0,0.0,94,0.00,,,0.00,Wunderground v.1.15,2013-10-02 08:57:00,
2013-10-02 03:59:00,60.8,59.1,29.98,South,190,0.0,0.0,94,0.00,,,0.00,Wunderground v.1.15,2013-10-02 08:59:00,
2013-10-02 04:03:00,60.7,59.0,29.99,South,190,0.0,0.0,94,0.00,,,0.00,Wunderground v.1.15,2013-10-02 09:03:00,
2013-10-02 04:04:00,60.7,59.0,29.99,South,190,0.0,0.0,94,0.00,,,0.00,Wunderground v.1.15,2013-10-02 09:04:00,
2013-10-02 04:05:00,60.7,59.0,29.99,South,190,0.0,0.0,94,0.00,,,0.00,Wunderground v.1.15,2013-10-02 09:05:00,
2013-10-02 04:06:00,60.6,58.9,29.99,South,190,0.0,0.0,94,0.00,,,0.00,Wunderground v.1.15,2013-10-02 09:06:00,
2013-10-02 04:09:00,60.5,58.8,29.99,South,190,0.0,0.0,94,0.00,,,0.00,Wunderground v.1.15,2013-10-02 09:09:00,
2013-10-02 04:10:00,60.5,58.8,29.99,South,190,0.0,0.0,94,0.00,,,0.00,Wunderground v.1.15,2013-10-02 09:10:00,
2013-10-02 04:13:00,60.5,58.8,29.99,South,190,0.0,0.0,94,0.00,,,0.00,Wunderground v.1.15,2013-10-02 09:13:00,
2013-10-02 04:14:00,60.4,58.7,29.99,South,190,0.0,0.0,94,0.00,,,0.00,Wunderground v.1.15,2013-10-02 09:14:00,
2013-10-02 04:16:00,60.4,58.7,29.99,South,190,0.0,0.0,94,0.00,,,0.00,Wunderground v.1.15,2013-10-02 09:16:00,
2013-10-02 04:17:00,60.3,58.6,29.99,South,190,0.0,0.0,94,0.00,,,0.00,Wunderground v.1.15,2013-10-02 09:17:00,
2013-10-02 04:18:00,60.3,58.6,29.99,South,190,0.0,0.0,94,0.00,,,0.00,Wunderground v.1.15,2013-10-02 09:18:00,
2013-10-02 04:20:00,60.2,58.5,29.99,South,190,0.0,0.0,94,0.00,,,0.00,Wunderground v.1.15,2013-10-02 09:20:00,
2013-10-02 04:21:00,60.1,58.4,29.99,South,190,0.0,0.0,94,0.00,,,0.00,Wunderground v.1.15,2013-10-02 09:21:00,
2013-10-02 04:22:00,60.1,58.4,29.99,South,190,0.0,0.0,94,0.00,,,0.00,Wunderground v.1.15,2013-10-02 09:22:00,
2013-10-02 04:26:00,59.9,58.2,29.99,South,190,0.0,0.0,94,0.00,,,0.00,Wunderground v.1.15,2013-10-02 09:26:00,
2013-10-02 04:27:00,59.9,58.2,29.99,South,190,0.0,0.0,94,0.00,,,0.00,Wunderground v.1.15,2013-10-02 09:27:00,
2013-10-02 04:29:00,59.8,58.1,29.99,South,190,0.0,0.0,94,0.00,,,0.00,Wunderground v.1.15,2013-10-02 09:29:00,
2013-10-02 04:30:00,59.8,58.1,29.99,South,190,0.0,0.0,94,0.00,,,0.00,Wunderground v.1.15,2013-10-02 09:30:00,
2013-10-02 04:31:00,59.7,57.7,29.99,South,190,0.0,0.0,93,0.00,,,0.00,Wunderground v.1.15,2013-10-02 09:31:00,
2013-10-02 04:35:00,59.4,57.4,29.99,South,190,0.0,0.0,93,0.00,,,0.00,Wunderground v.1.15,2013-10-02 09:35:00,
2013-10-02 04:36:00,59.4,57.4,29.99,South,190,0.0,0.0,93,0.00,,,0.00,Wunderground v.1.15,2013-10-02 09:36:00,
2013-10-02 04:37:00,59.3,57.3,29.99,South,190,0.0,0.0,93,0.00,,,0.00,Wunderground v.1.15,2013-10-02 09:37:00,
2013-10-02 04:39:00,59.2,57.2,29.99,South,190,0.0,0.0,93,0.00,,,0.00,Wunderground v.1.15,2013-10-02 09:39:00,
2013-10-02 04:42:00,59.2,57.5,30.00,South,190,0.0,0.0,94,0.00,,,0.00,Wunderground v.1.15,2013-10-02 09:42:00,
2013-10-02 04:43:00,59.2,57.5,30.00,South,190,0.0,0.0,94,0.00,,,0.00,Wunderground v.1.15,2013-10-02 09:43:00,
2013-10-02 04:46:00,59.1,57.4,30.00,South,190,0.0,0.0,94,0.00,,,0.00,Wunderground v.1.15,2013-10-02 09:46:00,
2013-10-02 04:48:00,59.0,57.3,30.00,South,190,0.0,0.0,94,0.00,,,0.00,Wunderground v.1.15,2013-10-02 09:48:00,
2013-10-02 04:49:00,59.0,57.3,30.00,South,190,0.0,0.0,94,0.00,,,0.00,Wunderground v.1.15,2013-10-02 09:49:00,
2013-10-02 04:54:00,58.8,57.1,30.00,South,190,0.0,0.0,94,0.00,,,0.00,Wunderground v.1.15,2013-10-02 09:54:00,
2013-10-02 04:55:00,58.7,57.0,30.00,South,190,0.0,0.0,94,0.00,,,0.00,Wunderground v.1.15,2013-10-02 09:55:00,
2013-10-02 04:56:00,58.6,56.9,30.00,South,190,0.0,0.0,94,0.00,,,0.00,Wunderground v.1.15,2013-10-02 09:56:00,
2013-10-02 05:00:00,58.3,56.3,30.00,South,190,0.0,0.0,93,0.00,,,0.00,Wunderground v.1.15,2013-10-02 10:00:00,
2013-10-02 05:02:00,58.2,56.2,30.00,South,190,0.0,0.0,93,0.00,,,0.00,Wunderground v.1.15,2013-10-02 10:02:00,
2013-10-02 05:05:00,58.0,56.3,30.00,South,190,0.0,0.0,94,0.00,,,0.00,Wunderground v.1.15,2013-10-02 10:05:00,
2013-10-02 05:06:00,58.0,56.3,30.00,South,190,0.0,0.0,94,0.00,,,0.00,Wunderground v.1.15,2013-10-02 10:06:00,
2013-10-02 05:07:00,57.9,56.2,30.00,South,190,0.0,0.0,94,0.00,,,0.00,Wunderground v.1.15,2013-10-02 10:07:00,
2013-10-02 05:10:00,57.9,56.2,30.01,South,190,0.0,0.0,94,0.00,,,0.00,Wunderground v.1.15,2013-10-02 10:10:00,
2013-10-02 05:12:00,57.8,56.1,30.00,South,190,0.0,0.0,94,0.00,,,0.00,Wunderground v.1.15,2013-10-02 10:12:00,
2013-10-02 05:13:00,57.8,56.1,30.00,South,190,0.0,0.0,94,0.00,,,0.00,Wunderground v.1.15,2013-10-02 10:13:00,
2013-10-02 05:14:00,57.7,56.0,30.00,South,190,0.0,0.0,94,0.00,,,0.00,Wunderground v.1.15,2013-10-02 10:14:00,
2013-10-02 05:15:00,57.7,56.0,30.00,South,190,0.0,0.0,94,0.00,,,0.00,Wunderground v.1.15,2013-10-02 10:15:00,
2013-10-02 05:19:00,57.4,55.4,30.01,South,190,0.0,0.0,93,0.00,,,0.00,Wunderground v.1.15,2013-10-02 10:19:00,
2013-10-02 05:21:00,57.2,55.2,30.01,South,190,0.0,0.0,93,0.00,,,0.00,Wunderground v.1.15,2013-10-02 10:21:00,
2013-10-02 05:22:00,57.1,55.1,30.01,South,190,0.0,0.0,93,0.00,,,0.00,Wunderground v.1.15,2013-10-02 10:22:00,
2013-10-02 05:23:00,57.0,55.0,30.01,South,190,0.0,0.0,93,0.00,,,0.00,Wunderground v.1.15,2013-10-02 10:23:00,
2013-10-02 05:24:00,57.0,55.0,30.01,South,190,0.0,0.0,93,0.00,,,0.00,Wunderground v.1.15,2013-10-02 10:24:00,
2013-10-02 05:26:00,56.8,54.8,30.01,South,190,0.0,0.0,93,0.00,,,0.00,Wunderground v.1.15,2013-10-02 10:26:00,
2013-10-02 05:28:00,56.7,55.0,30.01,South,190,0.0,0.0,94,0.00,,,0.00,Wunderground v.1.15,2013-10-02 10:28:00,
2013-10-02 05:30:00,56.6,54.9,30.01,South,190,0.0,0.0,94,0.00,,,0.00,Wunderground v.1.15,2013-10-02 10:30:00,
2013-10-02 05:32:00,56.5,54.8,30.01,South,190,0.0,0.0,94,0.00,,,0.00,Wunderground v.1.15,2013-10-02 10:32:00,
2013-10-02 05:33:00,56.5,54.8,30.01,South,190,0.0,0.0,94,0.00,,,0.00,Wunderground v.1.15,2013-10-02 10:33:00,
2013-10-02 05:35:00,56.4,54.7,30.01,South,190,0.0,0.0,94,0.00,,,0.00,Wunderground v.1.15,2013-10-02 10:35:00,
2013-10-02 05:37:00,56.4,54.7,30.01,South,190,0.0,0.0,94,0.00,,,0.00,Wunderground v.1.15,2013-10-02 10:37:00,
2013-10-02 05:38:00,56.4,54.7,30.01,South,190,0.0,0.0,94,0.00,,,0.00,Wunderground v.1.15,2013-10-02 10:38:00,
2013-10-02 05:39:00,56.4,54.7,30.01,South,190,0.0,0.0,94,0.00,,,0.00,Wunderground v.1.15,2013-10-02 10:39:00,
2013-10-02 05:42:00,56.4,54.7,30.01,South,190,0.0,0.0,94,0.00,,,0.00,Wunderground v.1.15,2013-10-02 10:42:00,
2013-10-02 05:46:00,56.4,55.0,30.01,South,190,0.0,0.0,95,0.00,,,0.00,Wunderground v.1.15,2013-10-02 10:46:00,
2013-10-02 05:48:00,56.4,54.7,30.01,South,190,0.0,0.0,94,0.00,,,0.00,Wunderground v.1.15,2013-10-02 10:48:00,
2013-10-02 05:49:00,56.3,54.6,30.01,South,190,0.0,0.0,94,0.00,,,0.00,Wunderground v.1.15,2013-10-02 10:49:00,
2013-10-02 05:52:00,56.3,54.6,30.02,South,190,0.0,0.0,94,0.00,,,0.00,Wunderground v.1.15,2013-10-02 10:52:00,
2013-10-02 05:53:00,56.2,54.5,30.01,South,190,0.0,0.0,94,0.00,,,0.00,Wunderground v.1.15,2013-10-02 10:53:00,
2013-10-02 05:54:00,56.2,54.5,30.02,South,190,0.0,0.0,94,0.00,,,0.00,Wunderground v.1.15,2013-10-02 10:54:00,
2013-10-02 05:56:00,56.1,54.4,30.02,South,190,0.0,0.0,94,0.00,,,0.00,Wunderground v.1.15,2013-10-02 10:56:00,
2013-10-02 05:57:00,56.1,54.4,30.02,South,190,0.0,0.0,94,0.00,,,0.00,Wunderground v.1.15,2013-10-02 10:57:00,
2013-10-02 05:58:00,56.1,54.4,30.01,South,190,0.0,0.0,94,0.00,,,0.00,Wunderground v.1.15,2013-10-02 10:58:00,
2013-10-02 05:59:00,56.0,54.3,30.02,South,190,0.0,0.0,94,0.00,,,0.00,Wunderground v.1.15,2013-10-02 10:59:00,
2013-10-02 06:03:00,55.9,54.2,30.02,South,190,0.0,0.0,94,0.00,,,0.00,Wunderground v.1.15,2013-10-02 11:03:00,
2013-10-02 06:06:00,55.9,54.5,30.01,South,190,0.0,0.0,95,0.00,,,0.00,Wunderground v.1.15,2013-10-02 11:06:00,
2013-10-02 06:07:00,55.9,54.5,30.02,South,190,0.0,0.0,95,0.00,,,0.00,Wunderground v.1.15,2013-10-02 11:07:00,
2013-10-02 06:09:00,55.9,54.5,30.02,South,190,0.0,0.0,95,0.00,,,0.00,Wunderground v.1.15,2013-10-02 11:09:00,
2013-10-02 06:10:00,55.9,54.5,30.02,South,190,0.0,0.0,95,0.00,,,0.00,Wunderground v.1.15,2013-10-02 11:10:00,
2013-10-02 06:11:00,55.9,54.5,30.02,South,190,0.0,0.0,95,0.00,,,0.00,Wunderground v.1.15,2013-10-02 11:11:00,
2013-10-02 06:12:00,55.9,54.5,30.02,South,190,0.0,0.0,95,0.00,,,0.00,Wunderground v.1.15,2013-10-02 11:12:00,
2013-10-02 06:15:00,55.9,54.5,30.02,South,190,0.0,2.0,95,0.00,,,0.00,Wunderground v.1.15,2013-10-02 11:15:00,
2013-10-02 06:16:00,56.0,54.6,30.02,South,190,0.0,2.0,95,0.00,,,0.00,Wunderground v.1.15,2013-10-02 11:16:00,
2013-10-02 06:17:00,56.1,54.7,30.02,South,190,0.0,2.0,95,0.00,,,0.00,Wunderground v.1.15,2013-10-02 11:17:00,
2013-10-02 06:18:00,56.1,54.7,30.02,South,190,0.0,2.0,95,0.00,,,0.00,Wunderground v.1.15,2013-10-02 11:18:00,
2013-10-02 06:20:00,56.3,54.9,30.02,South,190,0.0,0.0,95,0.00,,,0.00,Wunderground v.1.15,2013-10-02 11:20:00,
2013-10-02 06:21:00,56.3,54.9,30.02,South,190,0.0,3.0,95,0.00,,,0.00,Wunderground v.1.15,2013-10-02 11:21:00,
2013-10-02 06:22:00,56.3,54.9,30.02,South,190,0.0,3.0,95,0.00,,,0.00,Wunderground v.1.15,2013-10-02 11:22:00,
2013-10-02 06:23:00,56.4,55.0,30.02,South,189,0.0,3.0,95,0.00,,,0.00,Wunderground v.1.15,2013-10-02 11:23:00,
2013-10-02 06:26:00,56.5,55.1,30.02,South,189,0.0,3.0,95,0.00,,,0.00,Wunderground v.1.15,2013-10-02 11:26:00,
2013-10-02 06:28:00,56.6,55.2,30.02,South,189,1.0,3.0,95,0.00,,,0.00,Wunderground v.1.15,2013-10-02 11:28:00,
2013-10-02 06:29:00,56.6,55.2,30.02,South,189,1.0,3.0,95,0.00,,,0.00,Wunderground v.1.15,2013-10-02 11:29:00,
2013-10-02 06:31:00,56.7,55.3,30.02,South,189,1.0,2.0,95,0.00,,,0.00,Wunderground v.1.15,2013-10-02 11:31:00,
2013-10-02 06:34:00,56.7,55.3,30.02,South,189,1.0,2.0,95,0.00,,,0.00,Wunderground v.1.15,2013-10-02 11:34:00,
2013-10-02 06:38:00,56.8,55.1,30.02,South,189,1.0,2.0,94,0.00,,,0.00,Wunderground v.1.15,2013-10-02 11:38:00,
2013-10-02 06:41:00,56.7,55.0,30.02,South,189,1.0,2.0,94,0.00,,,0.00,Wunderground v.1.15,2013-10-02 11:41:00,
2013-10-02 06:42:00,56.7,55.0,30.02,South,189,1.0,2.0,94,0.00,,,0.00,Wunderground v.1.15,2013-10-02 11:42:00,
2013-10-02 06:43:00,56.7,55.0,30.02,South,189,1.0,2.0,94,0.00,,,0.00,Wunderground v.1.15,2013-10-02 11:43:00,
2013-10-02 06:44:00,56.7,55.0,30.02,South,189,1.0,2.0,94,0.00,,,0.00,Wunderground v.1.15,2013-10-02 11:44:00,
2013-10-02 06:45:00,56.7,54.7,30.02,South,189,1.0,2.0,93,0.00,,,0.00,Wunderground v.1.15,2013-10-02 11:45:00,
2013-10-02 06:49:00,56.7,54.7,30.02,South,189,1.0,2.0,93,0.00,,,0.00,Wunderground v.1.15,2013-10-02 11:49:00,
2013-10-02 06:50:00,56.8,54.8,30.02,South,187,1.0,2.0,93,0.00,,,0.00,Wunderground v.1.15,2013-10-02 11:50:00,
2013-10-02 06:51:00,56.7,54.7,30.02,South,186,1.0,2.0,93,0.00,,,0.00,Wunderground v.1.15,2013-10-02 11:51:00,
2013-10-02 06:52:00,56.8,54.8,30.02,South,186,1.0,2.0,93,0.00,,,0.00,Wunderground v.1.15,2013-10-02 11:52:00,
2013-10-02 06:53:00,56.8,54.8,30.03,South,186,1.0,2.0,93,0.00,,,0.00,Wunderground v.1.15,2013-10-02 11:53:00,
2013-10-02 06:54:00,56.8,54.5,30.02,South,187,1.0,2.0,92,0.00,,,0.00,Wunderground v.1.15,2013-10-02 11:54:00,
2013-10-02 06:56:00,56.8,54.5,30.02,South,187,1.0,2.0,92,0.00,,,0.00,Wunderground v.1.15,2013-10-02 11:56:00,
2013-10-02 06:58:00,56.9,54.6,30.02,South,187,1.0,2.0,92,0.00,,,0.00,Wunderground v.1.15,2013-10-02 11:58:00,
2013-10-02 06:59:00,56.9,54.6,30.02,South,187,1.0,2.0,92,0.00,,,0.00,Wunderground v.1.15,2013-10-02 11:59:00,
2013-10-02 07:01:00,56.9,54.3,30.02,South,186,1.0,3.0,91,0.00,,,0.00,Wunderground v.1.15,2013-10-02 12:01:00,
2013-10-02 07:02:00,56.9,54.3,30.02,South,186,1.0,3.0,91,0.00,,,0.00,Wunderground v.1.15,2013-10-02 12:02:00,
2013-10-02 07:04:00,57.0,54.4,30.03,South,186,1.0,3.0,91,0.00,,,0.00,Wunderground v.1.15,2013-10-02 12:04:00,
2013-10-02 07:05:00,57.0,54.1,30.03,South,186,1.0,3.0,90,0.00,,,0.00,Wunderground v.1.15,2013-10-02 12:05:00,
2013-10-02 07:06:00,56.9,54.0,30.02,South,186,1.0,3.0,90,0.00,,,0.00,Wunderground v.1.15,2013-10-02 12:06:00,
2013-10-02 07:08:00,57.0,54.1,30.03,South,186,1.0,3.0,90,0.00,,,0.00,Wunderground v.1.15,2013-10-02 12:08:00,
2013-10-02 07:09:00,57.0,54.1,30.03,South,186,1.0,3.0,90,0.00,,,0.00,Wunderground v.1.15,2013-10-02 12:09:00,
2013-10-02 07:13:00,57.0,54.1,30.03,South,186,0.0,2.0,90,0.00,,,0.00,Wunderground v.1.15,2013-10-02 12:13:00,
2013-10-02 07:14:00,57.0,54.1,30.03,South,186,0.0,2.0,90,0.00,,,0.00,Wunderground v.1.15,2013-10-02 12:14:00,
2013-10-02 07:15:00,57.0,53.8,30.03,South,186,0.0,2.0,89,0.00,,,0.00,Wunderground v.1.15,2013-10-02 12:15:00,
2013-10-02 07:16:00,57.0,53.8,30.03,South,186,0.0,2.0,89,0.00,,,0.00,Wunderground v.1.15,2013-10-02 12:16:00,
2013-10-02 07:17:00,57.0,53.8,30.03,South,186,0.0,2.0,89,0.00,,,0.00,Wunderground v.1.15,2013-10-02 12:17:00,
2013-10-02 07:20:00,57.0,53.8,30.03,South,186,0.0,0.0,89,0.00,,,0.00,Wunderground v.1.15,2013-10-02 12:20:00,
2013-10-02 07:21:00,57.1,53.9,30.03,South,186,0.0,0.0,89,0.00,,,0.00,Wunderground v.1.15,2013-10-02 12:21:00,
2013-10-02 07:23:00,57.1,53.6,30.03,South,186,0.0,0.0,88,0.00,,,0.00,Wunderground v.1.15,2013-10-02 12:23:00,
2013-10-02 07:24:00,57.1,53.6,30.03,South,186,0.0,2.0,88,0.00,,,0.00,Wunderground v.1.15,2013-10-02 12:24:00,
2013-10-02 07:25:00,57.1,53.6,30.03,South,186,0.0,2.0,88,0.00,,,0.00,Wunderground v.1.15,2013-10-02 12:25:00,
2013-10-02 07:30:00,57.2,53.7,30.03,South,186,0.0,0.0,88,0.00,,,0.00,Wunderground v.1.15,2013-10-02 12:30:00,
2013-10-02 07:31:00,57.3,53.8,30.03,South,186,0.0,0.0,88,0.00,,,0.00,Wunderground v.1.15,2013-10-02 12:31:00,
2013-10-02 07:33:00,57.3,53.5,30.03,South,186,0.0,0.0,87,0.00,,,0.00,Wunderground v.1.15,2013-10-02 12:33:00,
2013-10-02 07:35:00,57.4,53.6,30.03,South,186,0.0,0.0,87,0.00,,,0.00,Wunderground v.1.15,2013-10-02 12:35:00,
2013-10-02 07:36:00,57.5,53.7,30.03,South,186,0.0,0.0,87,0.00,,,0.00,Wunderground v.1.15,2013-10-02 12:36:00,
2013-10-02 07:38:00,57.6,53.4,30.03,South,186,0.0,0.0,86,0.00,,,0.00,Wunderground v.1.15,2013-10-02 12:38:00,
2013-10-02 07:39:00,57.6,53.4,30.03,South,186,0.0,0.0,86,0.00,,,0.00,Wunderground v.1.15,2013-10-02 12:39:00,
2013-10-02 07:41:00,57.7,53.5,30.03,South,186,0.0,0.0,86,0.00,,,0.00,Wunderground v.1.15,2013-10-02 12:41:00,
2013-10-02 07:42:00,57.7,53.5,30.03,South,186,0.0,0.0,86,0.00,,,0.00,Wunderground v.1.15,2013-10-02 12:42:00,
2013-10-02 07:44:00,57.9,53.7,30.03,South,186,0.0,0.0,86,0.00,,,0.00,Wunderground v.1.15,2013-10-02 12:44:00,
2013-10-02 07:46:00,58.1,53.6,30.03,South,186,0.0,1.0,85,0.00,,,0.00,Wunderground v.1.15,2013-10-02 12:46:00,
2013-10-02 07:47:00,58.1,53.6,30.03,South,186,0.0,1.0,85,0.00,,,0.00,Wunderground v.1.15,2013-10-02 12:47:00,
2013-10-02 07:51:00,58.4,53.6,30.03,South,186,0.0,0.0,84,0.00,,,0.00,Wunderground v.1.15,2013-10-02 12:51:00,
2013-10-02 07:52:00,58.5,53.7,30.04,South,186,0.0,0.0,84,0.00,,,0.00,Wunderground v.1.15,2013-10-02 12:52:00,
2013-10-02 07:53:00,58.6,53.8,30.04,South,186,0.0,0.0,84,0.00,,,0.00,Wunderground v.1.15,2013-10-02 12:53:00,
2013-10-02 07:54:00,58.6,53.5,30.04,South,186,0.0,0.0,83,0.00,,,0.00,Wunderground v.1.15,2013-10-02 12:54:00,
2013-10-02 07:56:00,58.9,53.7,30.04,South,186,0.0,0.0,83,0.00,,,0.00,Wunderground v.1.15,2013-10-02 12:56:00,
2013-10-02 07:58:00,59.0,53.5,30.04,South,186,0.0,0.0,82,0.00,,,0.00,Wunderground v.1.15,2013-10-02 12:58:00,
2013-10-02 07:59:00,59.1,53.6,30.04,South,186,0.0,0.0,82,0.00,,,0.00,Wunderground v.1.15,2013-10-02 12:59:00,
2013-10-02 08:00:00,59.2,53.7,30.04,South,186,0.0,0.0,82,0.00,,,0.00,Wunderground v.1.15,2013-10-02 13:00:00,
2013-10-02 08:02:00,59.4,53.9,30.04,South,186,0.0,0.0,82,0.00,,,0.00,Wunderground v.1.15,2013-10-02 13:02:00,
2013-10-02 08:07:00,59.8,53.6,30.04,South,186,0.0,0.0,80,0.00,,,0.00,Wunderground v.1.15,2013-10-02 13:07:00,
2013-10-02 08:08:00,60.1,54.2,30.04,South,186,0.0,0.0,81,0.00,,,0.00,Wunderground v.1.15,2013-10-02 13:08:00,
2013-10-02 08:10:00,60.4,54.2,30.04,South,184,0.0,0.0,80,0.00,,,0.00,Wunderground v.1.15,2013-10-02 13:10:00,
2013-10-02 08:11:00,60.6,54.0,30.05,South,184,0.0,0.0,79,0.00,,,0.00,Wunderground v.1.15,2013-10-02 13:11:00,
2013-10-02 08:13:00,60.9,54.3,30.05,South,184,0.0,0.0,79,0.00,,,0.00,Wunderground v.1.15,2013-10-02 13:13:00,
2013-10-02 08:14:00,61.0,54.4,30.05,South,184,0.0,0.0,79,0.00,,,0.00,Wunderground v.1.15,2013-10-02 13:14:00,
2013-10-02 08:15:00,61.2,54.6,30.05,South,184,0.0,0.0,79,0.00,,,0.00,Wunderground v.1.15,2013-10-02 13:15:00,
2013-10-02 08:16:00,61.4,54.5,30.04,South,184,0.0,1.0,78,0.00,,,0.00,Wunderground v.1.15,2013-10-02 13:16:00,
2013-10-02 08:17:00,61.5,54.6,30.04,South,184,0.0,1.0,78,0.00,,,0.00,Wunderground v.1.15,2013-10-02 13:17:00,
2013-10-02 08:22:00,62.2,54.9,30.05,South,184,0.0,0.0,77,0.00,,,0.00,Wunderground v.1.15,2013-10-02 13:22:00,
2013-10-02 08:23:00,62.3,54.6,30.04,South,182,0.0,3.0,76,0.00,,,0.00,Wunderground v.1.15,2013-10-02 13:23:00,
2013-10-02 08:25:00,62.6,54.6,30.05,South,180,0.0,3.0,75,0.00,,,0.00,Wunderground v.1.15,2013-10-02 13:25:00,
2013-10-02 08:27:00,62.9,54.9,30.05,East,101,1.0,4.0,75,0.00,,,0.00,Wunderground v.1.15,2013-10-02 13:27:00,
2013-10-02 08:28:00,63.1,54.7,30.05,ESE,103,1.0,4.0,74,0.00,,,0.00,Wunderground v.1.15,2013-10-02 13:28:00,
2013-10-02 08:30:00,63.3,54.5,30.05,NE,46,1.0,1.0,73,0.00,,,0.00,Wunderground v.1.15,2013-10-02 13:30:00,
2013-10-02 08:32:00,63.6,54.4,30.05,NE,46,1.0,1.0,72,0.00,,,0.00,Wunderground v.1.15,2013-10-02 13:32:00,
2013-10-02 08:33:00,63.8,54.6,30.05,NE,54,1.0,3.0,72,0.00,,,0.00,Wunderground v.1.15,2013-10-02 13:33:00,
2013-10-02 08:37:00,64.3,54.7,30.05,ENE,64,2.0,4.0,71,0.00,,,0.00,Wunderground v.1.15,2013-10-02 13:37:00,
2013-10-02 08:38:00,64.4,54.4,30.05,East,92,2.0,4.0,70,0.00,,,0.00,Wunderground v.1.15,2013-10-02 13:38:00,
2013-10-02 08:40:00,64.7,54.7,30.05,ESE,107,2.0,2.0,70,0.00,,,0.00,Wunderground v.1.15,2013-10-02 13:40:00,
2013-10-02 08:43:00,65.0,54.2,30.05,NE,48,3.0,6.0,68,0.00,,,0.00,Wunderground v.1.15,2013-10-02 13:43:00,
2013-10-02 08:45:00,65.3,54.1,30.05,ENE,57,3.0,6.0,67,0.00,,,0.00,Wunderground v.1.15,2013-10-02 13:45:00,
2013-10-02 08:46:00,65.4,53.7,30.05,NE,55,3.0,6.0,66,0.00,,,0.00,Wunderground v.1.15,2013-10-02 13:46:00,
2013-10-02 08:48:00,65.6,53.9,30.05,NE,54,2.0,6.0,66,0.00,,,0.00,Wunderground v.1.15,2013-10-02 13:48:00,
2013-10-02 08:49:00,65.7,54.0,30.05,ENE,59,2.0,6.0,66,0.00,,,0.00,Wunderground v.1.15,2013-10-02 13:49:00,
2013-10-02 08:51:00,66.0,54.3,30.05,East,82,3.0,3.0,66,0.00,,,0.00,Wunderground v.1.15,2013-10-02 13:51:00,
2013-10-02 08:52:00,66.0,54.3,30.05,SE,141,3.0,4.0,66,0.00,,,0.00,Wunderground v.1.15,2013-10-02 13:52:00,
2013-10-02 08:53:00,66.1,54.4,30.05,ESE,117,3.0,4.0,66,0.00,,,0.00,Wunderground v.1.15,2013-10-02 13:53:00,
2013-10-02 08:54:00,66.2,54.5,30.05,East,100,2.0,4.0,66,0.00,,,0.00,Wunderground v.1.15,2013-10-02 13:54:00,
2013-10-02 08:57:00,66.4,54.3,30.05,East,82,3.0,4.0,65,0.00,,,0.00,Wunderground v.1.15,2013-10-02 13:57:00,
2013-10-02 08:59:00,66.5,54.4,30.05,East,99,3.0,4.0,65,0.00,,,0.00,Wunderground v.1.15,2013-10-02 13:59:00,
2013-10-02 09:01:00,66.7,54.6,30.05,ENE,78,3.0,4.0,65,0.00,,,0.00,Wunderground v.1.15,2013-10-02 14:01:00,
2013-10-02 09:02:00,66.7,54.6,30.05,ENE,69,3.0,4.0,65,0.00,,,0.00,Wunderground v.1.15,2013-10-02 14:02:00,
2013-10-02 09:05:00,66.8,53.8,30.05,NE,42,3.0,4.0,63,0.00,,,0.00,Wunderground v.1.15,2013-10-02 14:05:00,
2013-10-02 09:06:00,67.0,54.0,30.05,NE,53,3.0,4.0,63,0.00,,,0.00,Wunderground v.1.15,2013-10-02 14:06:00,
2013-10-02 09:07:00,67.0,54.0,30.05,East,89,3.0,4.0,63,0.00,,,0.00,Wunderground v.1.15,2013-10-02 14:07:00,
2013-10-02 09:08:00,67.1,54.5,30.05,ENE,76,3.0,5.0,64,0.00,,,0.00,Wunderground v.1.15,2013-10-02 14:08:00,
2013-10-02 09:12:00,67.4,53.5,30.05,ESE,106,3.0,8.0,61,0.00,,,0.00,Wunderground v.1.15,2013-10-02 14:12:00,
2013-10-02 09:13:00,67.5,53.6,30.05,NE,44,3.0,8.0,61,0.00,,,0.00,Wunderground v.1.15,2013-10-02 14:13:00,
2013-10-02 09:14:00,67.6,53.2,30.05,NE,40,3.0,8.0,60,0.00,,,0.00,Wunderground v.1.15,2013-10-02 14:14:00,
2013-10-02 09:15:00,67.6,53.7,30.05,NE,49,3.0,8.0,61,0.00,,,0.00,Wunderground v.1.15,2013-10-02 14:15:00,
2013-10-02 09:19:00,68.0,53.6,30.05,NE,51,3.0,8.0,60,0.00,,,0.00,Wunderground v.1.15,2013-10-02 14:19:00,
2013-10-02 09:22:00,68.3,53.9,30.05,NE,51,2.0,3.0,60,0.00,,,0.00,Wunderground v.1.15,2013-10-02 14:22:00,
2013-10-02 09:23:00,68.4,54.0,30.05,NE,52,2.0,7.0,60,0.00,,,0.00,Wunderground v.1.15,2013-10-02 14:23:00,
2013-10-02 09:25:00,68.5,52.7,30.05,NE,56,2.0,7.0,57,0.00,,,0.00,Wunderground v.1.15,2013-10-02 14:25:00,
2013-10-02 09:29:00,68.9,52.6,30.06,East,93,2.0,7.0,56,0.00,,,0.00,Wunderground v.1.15,2013-10-02 14:29:00,
2013-10-02 09:31:00,69.2,53.3,30.06,East,80,2.0,3.0,57,0.00,,,0.00,Wunderground v.1.15,2013-10-02 14:31:00,
2013-10-02 09:32:00,69.2,52.3,30.05,ENE,72,2.0,3.0,55,0.00,,,0.00,Wunderground v.1.15,2013-10-02 14:32:00,
2013-10-02 09:34:00,69.4,53.0,30.05,ENE,77,3.0,4.0,56,0.00,,,0.00,Wunderground v.1.15,2013-10-02 14:34:00,
2013-10-02 09:35:00,69.5,53.6,30.06,ENE,77,3.0,4.0,57,0.00,,,0.00,Wunderground v.1.15,2013-10-02 14:35:00,
2013-10-02 09:36:00,69.6,52.2,30.06,East,79,3.0,4.0,54,0.00,,,0.00,Wunderground v.1.15,2013-10-02 14:36:00,
2013-10-02 09:38:00,69.7,52.8,30.06,East,82,3.0,4.0,55,0.00,,,0.00,Wunderground v.1.15,2013-10-02 14:38:00,
2013-10-02 09:39:00,69.9,53.5,30.06,East,84,3.0,4.0,56,0.00,,,0.00,Wunderground v.1.15,2013-10-02 14:39:00,
2013-10-02 09:41:00,70.1,53.2,30.06,NE,36,3.0,3.0,55,0.00,,,0.00,Wunderground v.1.15,2013-10-02 14:41:00,
2013-10-02 09:43:00,70.3,52.9,30.06,NE,38,2.0,3.0,54,0.00,,,0.00,Wunderground v.1.15,2013-10-02 14:43:00,
2013-10-02 09:46:00,70.7,52.2,30.06,East,90,2.0,4.0,52,0.00,,,0.00,Wunderground v.1.15,2013-10-02 14:46:00,
2013-10-02 09:49:00,70.9,50.8,30.05,ESE,111,2.0,5.0,49,0.00,,,0.00,Wunderground v.1.15,2013-10-02 14:49:00,
2013-10-02 09:51:00,71.0,49.2,30.05,East,81,3.0,6.0,46,0.00,,,0.00,Wunderground v.1.15,2013-10-02 14:51:00,
2013-10-02 09:53:00,71.1,49.3,30.05,East,88,3.0,6.0,46,0.00,,,0.00,Wunderground v.1.15,2013-10-02 14:53:00,
2013-10-02 09:55:00,71.3,49.4,30.05,ESE,108,4.0,6.0,46,0.00,,,0.00,Wunderground v.1.15,2013-10-02 14:55:00,
2013-10-02 09:58:00,71.5,48.4,30.05,NE,50,4.0,8.0,44,0.00,,,0.00,Wunderground v.1.15,2013-10-02 14:58:00,
2013-10-02 09:59:00,71.5,47.2,30.06,SE,140,4.0,8.0,42,0.00,,,0.00,Wunderground v.1.15,2013-10-02 14:59:00,
2013-10-02 10:03:00,71.7,46.7,30.06,ENE,78,4.0,6.0,41,0.00,,,0.00,Wunderground v.1.15,2013-10-02 15:03:00,
2013-10-02 10:05:00,71.8,47.5,30.05,East,92,4.0,6.0,42,0.00,,,0.00,Wunderground v.1.15,2013-10-02 15:05:00,
2013-10-02 10:06:00,71.9,47.6,30.05,East,94,4.0,7.0,42,0.00,,,0.00,Wunderground v.1.15,2013-10-02 15:06:00,
2013-10-02 10:07:00,71.9,46.3,30.06,ESE,103,4.0,10.0,40,0.00,,,0.00,Wunderground v.1.15,2013-10-02 15:07:00,
2013-10-02 10:11:00,72.2,46.5,30.05,East,92,4.0,4.0,40,0.00,,,0.00,Wunderground v.1.15,2013-10-02 15:11:00,
2013-10-02 10:13:00,72.3,46.6,30.05,ENE,78,4.0,6.0,40,0.00,,,0.00,Wunderground v.1.15,2013-10-02 15:13:00,
2013-10-02 10:15:00,72.5,46.8,30.05,ESE,112,5.0,9.0,40,0.00,,,0.00,Wunderground v.1.15,2013-10-02 15:15:00,
2013-10-02 10:16:00,72.6,46.9,30.05,East,94,4.0,9.0,40,0.00,,,0.00,Wunderground v.1.15,2013-10-02 15:16:00,
2013-10-02 10:17:00,72.6,46.9,30.05,East,96,4.0,9.0,40,0.00,,,0.00,Wunderground v.1.15,2013-10-02 15:17:00,
2013-10-02 10:18:00,72.7,46.3,30.05,East,93,4.0,9.0,39,0.00,,,0.00,Wunderground v.1.15,2013-10-02 15:18:00,
2013-10-02 10:19:00,72.8,46.4,30.05,ENE,67,4.0,9.0,39,0.00,,,0.00,Wunderground v.1.15,2013-10-02 15:19:00,
2013-10-02 10:23:00,73.1,46.7,30.05,East,87,4.0,11.0,39,0.00,,,0.00,Wunderground v.1.15,2013-10-02 15:23:00,
2013-10-02 10:24:00,73.1,46.7,30.05,ENE,69,4.0,11.0,39,0.00,,,0.00,Wunderground v.1.15,2013-10-02 15:24:00,
2013-10-02 10:25:00,73.2,46.8,30.05,ENE,69,4.0,11.0,39,0.00,,,0.00,Wunderground v.1.15,2013-10-02 15:25:00,
2013-10-02 10:27:00,73.3,46.8,30.05,ENE,61,5.0,11.0,39,0.00,,,0.00,Wunderground v.1.15,2013-10-02 15:27:00,
2013-10-02 10:29:00,73.4,46.2,30.05,ENE,70,5.0,11.0,38,0.00,,,0.00,Wunderground v.1.15,2013-10-02 15:29:00,
2013-10-02 10:30:00,73.5,47.0,30.05,East,99,5.0,5.0,39,0.00,,,0.00,Wunderground v.1.15,2013-10-02 15:30:00,
2013-10-02 10:31:00,73.5,47.7,30.05,ESE,113,5.0,5.0,40,0.00,,,0.00,Wunderground v.1.15,2013-10-02 15:31:00,
2013-10-02 10:33:00,73.6,47.8,30.05,ENE,76,5.0,5.0,40,0.00,,,0.00,Wunderground v.1.15,2013-10-02 15:33:00,
2013-10-02 10:36:00,73.8,47.3,30.05,SE,133,5.0,7.0,39,0.00,,,0.00,Wunderground v.1.15,2013-10-02 15:36:00,
2013-10-02 10:39:00,74.0,46.8,30.05,SE,135,5.0,7.0,38,0.00,,,0.00,Wunderground v.1.15,2013-10-02 15:39:00,
2013-10-02 10:40:00,74.0,46.1,30.05,East,95,5.0,6.0,37,0.00,,,0.00,Wunderground v.1.15,2013-10-02 15:40:00,
2013-10-02 10:42:00,74.1,46.2,30.05,East,88,5.0,6.0,37,0.00,,,0.00,Wunderground v.1.15,2013-10-02 15:42:00,
2013-10-02 10:43:00,74.2,46.2,30.05,ENE,74,5.0,6.0,37,0.00,,,0.00,Wunderground v.1.15,2013-10-02 15:43:00,
2013-10-02 10:44:00,74.2,47.6,30.05,ENE,70,5.0,6.0,39,0.00,,,0.00,Wunderground v.1.15,2013-10-02 15:44:00,
2013-10-02 10:48:00,74.5,46.5,30.05,ESE,102,4.0,6.0,37,0.00,,,0.00,Wunderground v.1.15,2013-10-02 15:48:00,
2013-10-02 10:49:00,74.6,45.9,30.05,NE,38,4.0,6.0,36,0.00,,,0.00,Wunderground v.1.15,2013-10-02 15:49:00,
2013-10-02 10:50:00,74.7,46.0,30.05,East,89,4.0,4.0,36,0.00,,,0.00,Wunderground v.1.15,2013-10-02 15:50:00,
2013-10-02 10:51:00,74.8,46.1,30.05,NE,55,3.0,4.0,36,0.00,,,0.00,Wunderground v.1.15,2013-10-02 15:51:00,
2013-10-02 10:55:00,75.0,46.2,30.05,ESE,108,3.0,5.0,36,0.00,,,0.00,Wunderground v.1.15,2013-10-02 15:55:00,
2013-10-02 10:56:00,75.1,46.3,30.05,ESE,117,3.0,5.0,36,0.00,,,0.00,Wunderground v.1.15,2013-10-02 15:56:00,
2013-10-02 10:57:00,75.1,46.3,30.05,ESE,111,3.0,5.0,36,0.00,,,0.00,Wunderground v.1.15,2013-10-02 15:57:00,
2013-10-02 10:58:00,75.1,45.6,30.05,ESE,103,4.0,5.0,35,0.00,,,0.00,Wunderground v.1.15,2013-10-02 15:58:00,
2013-10-02 11:01:00,75.2,44.9,30.05,East,82,4.0,5.0,34,0.00,,,0.00,Wunderground v.1.15,2013-10-02 16:01:00,
2013-10-02 11:04:00,75.2,46.4,30.05,ESE,112,4.0,6.0,36,0.00,,,0.00,Wunderground v.1.15,2013-10-02 16:04:00,
2013-10-02 11:05:00,75.2,45.7,30.05,East,84,4.0,6.0,35,0.00,,,0.00,Wunderground v.1.15,2013-10-02 16:05:00,
2013-10-02 11:06:00,75.2,46.4,30.05,East,87,4.0,6.0,36,0.00,,,0.00,Wunderground v.1.15,2013-10-02 16:06:00,
2013-10-02 11:09:00,75.4,46.6,30.05,ENE,67,4.0,6.0,36,0.00,,,0.00,Wunderground v.1.15,2013-10-02 16:09:00,
2013-10-02 11:10:00,75.4,45.8,30.05,East,80,4.0,4.0,35,0.00,,,0.00,Wunderground v.1.15,2013-10-02 16:10:00,
2013-10-02 11:11:00,75.6,46.0,30.05,ENE,76,4.0,4.0,35,0.00,,,0.00,Wunderground v.1.15,2013-10-02 16:11:00,
2013-10-02 11:12:00,75.6,46.0,30.05,ENE,57,4.0,7.0,35,0.00,,,0.00,Wunderground v.1.15,2013-10-02 16:12:00,
2013-10-02 11:16:00,75.9,47.0,30.05,ENE,66,4.0,7.0,36,0.00,,,0.00,Wunderground v.1.15,2013-10-02 16:16:00,
2013-10-02 11:19:00,76.1,47.2,30.04,NE,41,4.0,9.0,36,0.00,,,0.00,Wunderground v.1.15,2013-10-02 16:19:00,
2013-10-02 11:21:00,76.2,46.5,30.04,ENE,76,4.0,5.0,35,0.00,,,0.00,Wunderground v.1.15,2013-10-02 16:21:00,
2013-10-02 11:22:00,76.2,46.5,30.04,East,82,4.0,5.0,35,0.00,,,0.00,Wunderground v.1.15,2013-10-02 16:22:00,
2013-10-02 11:23:00,76.2,45.8,30.04,ESE,109,4.0,5.0,34,0.00,,,0.00,Wunderground v.1.15,2013-10-02 16:23:00,
2013-10-02 11:25:00,76.3,46.6,30.05,East,88,4.0,5.0,35,0.00,,,0.00,Wunderground v.1.15,2013-10-02 16:25:00,
2013-10-02 11:27:00,76.3,46.6,30.04,SE,139,4.0,6.0,35,0.00,,,0.00,Wunderground v.1.15,2013-10-02 16:27:00,
2013-10-02 11:29:00,76.4,45.9,30.04,ENE,76,4.0,6.0,34,0.00,,,0.00,Wunderground v.1.15,2013-10-02 16:29:00,
2013-10-02 11:30:00,76.4,45.9,30.04,East,82,4.0,4.0,34,0.00,,,0.00,Wunderground v.1.15,2013-10-02 16:30:00,
2013-10-02 11:31:00,76.5,46.0,30.04,ESE,109,4.0,4.0,34,0.00,,,0.00,Wunderground v.1.15,2013-10-02 16:31:00,
2013-10-02 11:33:00,76.6,45.3,30.04,East,98,3.0,4.0,33,0.00,,,0.00,Wunderground v.1.15,2013-10-02 16:33:00,
2013-10-02 11:36:00,76.9,46.4,30.04,East,90,3.0,7.0,34,0.00,,,0.00,Wunderground v.1.15,2013-10-02 16:36:00,
2013-10-02 11:38:00,76.9,45.6,30.04,SE,128,3.0,7.0,33,0.00,,,0.00,Wunderground v.1.15,2013-10-02 16:38:00,
2013-10-02 11:40:00,77.0,45.7,30.04,East,89,4.0,4.0,33,0.00,,,0.00,Wunderground v.1.15,2013-10-02 16:40:00,
2013-10-02 11:41:00,77.1,45.0,30.04,East,95,4.0,4.0,32,0.00,,,0.00,Wunderground v.1.15,2013-10-02 16:41:00,
2013-10-02 11:42:00,77.1,45.0,30.04,East,94,4.0,4.0,32,0.00,,,0.00,Wunderground v.1.15,2013-10-02 16:42:00,
2013-10-02 11:44:00,77.1,45.8,30.04,ENE,76,4.0,4.0,33,0.00,,,0.00,Wunderground v.1.15,2013-10-02 16:44:00,
2013-10-02 11:45:00,77.1,45.8,30.04,ESE,120,4.0,4.0,33,0.00,,,0.00,Wunderground v.1.15,2013-10-02 16:45:00,
2013-10-02 11:47:00,77.2,45.9,30.03,ESE,117,4.0,4.0,33,0.00,,,0.00,Wunderground v.1.15,2013-10-02 16:47:00,
2013-10-02 11:50:00,77.3,45.9,30.04,ENE,74,4.0,4.0,33,0.00,,,0.00,Wunderground v.1.15,2013-10-02 16:50:00,
2013-10-02 11:51:00,77.3,46.7,30.04,ESE,110,4.0,7.0,34,0.00,,,0.00,Wunderground v.1.15,2013-10-02 16:51:00,
2013-10-02 11:54:00,77.4,46.8,30.03,ENE,69,5.0,7.0,34,0.00,,,0.00,Wunderground v.1.15,2013-10-02 16:54:00,
2013-10-02 11:56:00,77.6,46.2,30.03,ENE,69,5.0,7.0,33,0.00,,,0.00,Wunderground v.1.15,2013-10-02 16:56:00,
2013-10-02 11:58:00,77.6,46.2,30.04,ESE,105,5.0,9.0,33,0.00,,,0.00,Wunderground v.1.15,2013-10-02 16:58:00,
2013-10-02 11:59:00,77.6,46.2,30.03,ESE,105,5.0,9.0,33,0.00,,,0.00,Wunderground v.1.15,2013-10-02 16:59:00,
2013-10-02 12:00:00,77.7,46.3,30.03,East,98,5.0,5.0,33,0.00,,,0.00,Wunderground v.1.15,2013-10-02 17:00:00,
2013-10-02 12:02:00,77.8,47.2,30.03,ENE,61,5.0,6.0,34,0.00,,,0.00,Wunderground v.1.15,2013-10-02 17:02:00,
2013-10-02 12:03:00,77.8,46.4,30.03,East,91,4.0,6.0,33,0.00,,,0.00,Wunderground v.1.15,2013-10-02 17:03:00,
2013-10-02 12:05:00,77.9,46.5,30.03,East,101,5.0,6.0,33,0.00,,,0.00,Wunderground v.1.15,2013-10-02 17:05:00,
2013-10-02 12:07:00,77.9,47.3,30.03,SSE,160,4.0,6.0,34,0.00,,,0.00,Wunderground v.1.15,2013-10-02 17:07:00,
2013-10-02 12:08:00,78.0,47.4,30.03,SE,144,4.0,6.0,34,0.00,,,0.00,Wunderground v.1.15,2013-10-02 17:08:00,
2013-10-02 12:11:00,78.2,46.7,30.03,East,82,4.0,4.0,33,0.00,,,0.00,Wunderground v.1.15,2013-10-02 17:11:00,
2013-10-02 12:12:00,78.3,47.6,30.03,East,93,4.0,5.0,34,0.00,,,0.00,Wunderground v.1.15,2013-10-02 17:12:00,
2013-10-02 12:15:00,78.4,46.9,30.02,East,96,4.0,8.0,33,0.00,,,0.00,Wunderground v.1.15,2013-10-02 17:15:00,
2013-10-02 12:16:00,78.5,47.0,30.03,ESE,104,4.0,8.0,33,0.00,,,0.00,Wunderground v.1.15,2013-10-02 17:16:00,
2013-10-02 12:20:00,78.6,47.1,30.03,SE,134,4.0,5.0,33,0.00,,,0.00,Wunderground v.1.15,2013-10-02 17:20:00,
2013-10-02 12:21:00,78.7,47.2,30.02,SSE,159,4.0,6.0,33,0.00,,,0.00,Wunderground v.1.15,2013-10-02 17:21:00,
2013-10-02 12:24:00,78.8,47.3,30.02,SSE,161,4.0,6.0,33,0.00,,,0.00,Wunderground v.1.15,2013-10-02 17:24:00,
2013-10-02 12:26:00,78.8,48.8,30.02,East,92,4.0,6.0,35,0.00,,,0.00,Wunderground v.1.15,2013-10-02 17:26:00,
2013-10-02 12:28:00,78.9,48.9,30.02,SSE,154,4.0,6.0,35,0.00,,,0.00,Wunderground v.1.15,2013-10-02 17:28:00,
2013-10-02 12:31:00,79.1,47.5,30.02,ESE,103,4.0,6.0,33,0.00,,,0.00,Wunderground v.1.15,2013-10-02 17:31:00,
2013-10-02 12:33:00,79.1,48.3,30.02,ENE,67,4.0,6.0,34,0.00,,,0.00,Wunderground v.1.15,2013-10-02 17:33:00,
2013-10-02 12:35:00,79.2,48.4,30.02,East,80,3.0,6.0,34,0.00,,,0.00,Wunderground v.1.15,2013-10-02 17:35:00,
2013-10-02 12:38:00,79.3,48.5,30.02,ENE,65,3.0,6.0,34,0.00,,,0.00,Wunderground v.1.15,2013-10-02 17:38:00,
2013-10-02 12:41:00,79.4,48.6,30.02,East,93,4.0,4.0,34,0.00,,,0.00,Wunderground v.1.15,2013-10-02 17:41:00,
2013-10-02 12:46:00,79.6,49.5,30.01,East,101,4.0,4.0,35,0.00,,,0.00,Wunderground v.1.15,2013-10-02 17:46:00,
2013-10-02 12:47:00,79.6,48.8,30.01,East,94,4.0,5.0,34,0.00,,,0.00,Wunderground v.1.15,2013-10-02 17:47:00,
2013-10-02 12:48:00,79.7,49.6,30.01,East,93,4.0,5.0,35,0.00,,,0.00,Wunderground v.1.15,2013-10-02 17:48:00,
2013-10-02 12:51:00,79.8,48.1,30.01,East,96,3.0,8.0,33,0.00,,,0.00,Wunderground v.1.15,2013-10-02 17:51:00,
2013-10-02 12:52:00,79.8,48.1,30.01,ESE,108,3.0,8.0,33,0.00,,,0.00,Wunderground v.1.15,2013-10-02 17:52:00,
2013-10-02 12:54:00,79.8,48.9,30.01,ENE,67,3.0,8.0,34,0.00,,,0.00,Wunderground v.1.15,2013-10-02 17:54:00,
2013-10-02 12:55:00,79.8,48.9,30.01,ENE,67,3.0,8.0,34,0.00,,,0.00,Wunderground v.1.15,2013-10-02 17:55:00,
2013-10-02 12:57:00,79.9,48.2,30.01,ENE,61,3.0,8.0,33,0.00,,,0.00,Wunderground v.1.15,2013-10-02 17:57:00,
2013-10-02 12:59:00,79.9,48.2,30.01,East,86,4.0,8.0,33,0.00,,,0.00,Wunderground v.1.15,2013-10-02 17:59:00,
2013-10-02 13:02:00,79.8,48.9,30.01,ENE,59,4.0,5.0,34,0.00,,,0.00,Wunderground v.1.15,2013-10-02 18:02:00,
2013-10-02 13:03:00,79.8,49.7,30.01,ENE,60,4.0,5.0,35,0.00,,,0.00,Wunderground v.1.15,2013-10-02 18:03:00,
2013-10-02 13:05:00,79.8,48.9,30.01,ENE,62,4.0,5.0,34,0.00,,,0.00,Wunderground v.1.15,2013-10-02 18:05:00,
2013-10-02 13:08:00,80.0,50.6,30.00,SE,126,3.0,5.0,36,0.00,,,0.00,Wunderground v.1.15,2013-10-02 18:08:00,
2013-10-02 13:09:00,80.2,50.8,30.00,SSE,158,3.0,5.0,36,0.00,,,0.00,Wunderground v.1.15,2013-10-02 18:09:00,
2013-10-02 13:11:00,80.4,50.2,30.00,East,82,2.0,6.0,35,0.00,,,0.00,Wunderground v.1.15,2013-10-02 18:11:00,
2013-10-02 13:14:00,80.6,51.2,30.00,ESE,103,2.0,6.0,36,0.00,,,0.00,Wunderground v.1.15,2013-10-02 18:14:00,
2013-10-02 13:15:00,80.7,50.5,30.00,SE,126,2.0,6.0,35,0.00,,,0.00,Wunderground v.1.15,2013-10-02 18:15:00,
2013-10-02 13:16:00,80.7,51.3,30.00,SE,126,3.0,6.0,36,0.00,,,0.00,Wunderground v.1.15,2013-10-02 18:16:00,
2013-10-02 13:17:00,80.8,51.4,30.00,SE,126,2.0,6.0,36,0.00,,,0.00,Wunderground v.1.15,2013-10-02 18:17:00,
2013-10-02 13:20:00,80.9,50.7,30.00,SE,130,2.0,4.0,35,0.00,,,0.00,Wunderground v.1.15,2013-10-02 18:20:00,
2013-10-02 13:21:00,81.0,50.8,30.00,SE,129,2.0,4.0,35,0.00,,,0.00,Wunderground v.1.15,2013-10-02 18:21:00,
2013-10-02 13:22:00,81.0,50.8,30.00,SSE,166,2.0,4.0,35,0.00,,,0.00,Wunderground v.1.15,2013-10-02 18:22:00,
2013-10-02 13:26:00,81.0,50.0,30.00,ESE,105,3.0,7.0,34,0.00,,,0.00,Wunderground v.1.15,2013-10-02 18:26:00,
2013-10-02 13:27:00,81.0,50.0,30.00,ESE,123,3.0,7.0,34,0.00,,,0.00,Wunderground v.1.15,2013-10-02 18:27:00,
2013-10-02 13:28:00,81.0,50.0,30.00,ESE,105,3.0,7.0,34,0.00,,,0.00,Wunderground v.1.15,2013-10-02 18:28:00,
2013-10-02 13:30:00,81.0,50.8,29.99,ESE,103,3.0,3.0,35,0.00,,,0.00,Wunderground v.1.15,2013-10-02 18:30:00,
2013-10-02 13:32:00,81.0,52.3,29.99,ESE,115,3.0,3.0,37,0.00,,,0.00,Wunderground v.1.15,2013-10-02 18:32:00,
2013-10-02 13:33:00,81.1,52.4,29.99,ESE,117,3.0,5.0,37,0.00,,,0.00,Wunderground v.1.15,2013-10-02 18:33:00,
2013-10-02 13:36:00,81.2,50.2,29.99,ESE,116,3.0,5.0,34,0.00,,,0.00,Wunderground v.1.15,2013-10-02 18:36:00,
2013-10-02 13:37:00,81.2,50.9,29.99,ESE,104,3.0,5.0,35,0.00,,,0.00,Wunderground v.1.15,2013-10-02 18:37:00,
2013-10-02 13:38:00,81.3,51.0,29.99,ESE,113,3.0,5.0,35,0.00,,,0.00,Wunderground v.1.15,2013-10-02 18:38:00,
2013-10-02 13:40:00,81.3,51.0,29.99,SE,141,3.0,3.0,35,0.00,,,0.00,Wunderground v.1.15,2013-10-02 18:40:00,
2013-10-02 13:42:00,81.3,51.8,29.99,SE,144,3.0,5.0,36,0.00,,,0.00,Wunderground v.1.15,2013-10-02 18:42:00,
2013-10-02 13:43:00,81.3,52.5,29.99,SE,139,3.0,5.0,37,0.00,,,0.00,Wunderground v.1.15,2013-10-02 18:43:00,
2013-10-02 13:45:00,81.2,51.7,29.99,SE,146,4.0,5.0,36,0.00,,,0.00,Wunderground v.1.15,2013-10-02 18:45:00,
2013-10-02 13:46:00,81.1,50.9,29.99,SE,146,3.0,5.0,35,0.00,,,0.00,Wunderground v.1.15,2013-10-02 18:46:00,
2013-10-02 13:47:00,81.1,50.9,29.99,SE,146,3.0,5.0,35,0.00,,,0.00,Wunderground v.1.15,2013-10-02 18:47:00,
2013-10-02 13:49:00,81.1,50.9,29.98,ESE,119,3.0,5.0,35,0.00,,,0.00,Wunderground v.1.15,2013-10-02 18:49:00,
2013-10-02 13:50:00,81.1,52.4,29.98,ESE,119,2.0,2.0,37,0.00,,,0.00,Wunderground v.1.15,2013-10-02 18:50:00,
2013-10-02 13:52:00,81.2,50.9,29.98,ENE,78,2.0,4.0,35,0.00,,,0.00,Wunderground v.1.15,2013-10-02 18:52:00,
2013-10-02 13:53:00,81.2,50.9,29.98,East,87,2.0,4.0,35,0.00,,,0.00,Wunderground v.1.15,2013-10-02 18:53:00,
2013-10-02 13:54:00,81.2,51.7,29.98,ENE,75,2.0,4.0,36,0.00,,,0.00,Wunderground v.1.15,2013-10-02 18:54:00,
2013-10-02 13:56:00,81.2,52.4,29.99,East,84,2.0,4.0,37,0.00,,,0.00,Wunderground v.1.15,2013-10-02 18:56:00,
2013-10-02 13:58:00,81.3,52.5,29.98,East,83,3.0,6.0,37,0.00,,,0.00,Wunderground v.1.15,2013-10-02 18:58:00,
2013-10-02 14:01:00,81.4,51.9,29.98,SSE,147,3.0,3.0,36,0.00,,,0.00,Wunderground v.1.15,2013-10-02 19:01:00,
2013-10-02 14:02:00,81.4,51.9,29.98,SSE,147,3.0,3.0,36,0.00,,,0.00,Wunderground v.1.15,2013-10-02 19:02:00,
2013-10-02 14:03:00,81.5,52.7,29.98,East,91,3.0,6.0,37,0.00,,,0.00,Wunderground v.1.15,2013-10-02 19:03:00,
2013-10-02 14:04:00,81.5,52.0,29.98,East,85,3.0,6.0,36,0.00,,,0.00,Wunderground v.1.15,2013-10-02 19:04:00,
2013-10-02 14:08:00,81.4,52.6,29.98,SE,141,3.0,6.0,37,0.00,,,0.00,Wunderground v.1.15,2013-10-02 19:08:00,
2013-10-02 14:09:00,81.3,52.5,29.98,SE,131,3.0,6.0,37,0.00,,,0.00,Wunderground v.1.15,2013-10-02 19:09:00,
2013-10-02 14:10:00,81.3,52.5,29.98,SE,134,3.0,3.0,37,0.00,,,0.00,Wunderground v.1.15,2013-10-02 19:10:00,
2013-10-02 14:14:00,81.2,53.9,29.98,SSE,167,3.0,4.0,39,0.00,,,0.00,Wunderground v.1.15,2013-10-02 19:14:00,
2013-10-02 14:15:00,81.3,54.0,29.98,ESE,111,3.0,4.0,39,0.00,,,0.00,Wunderground v.1.15,2013-10-02 19:15:00,
2013-10-02 14:16:00,81.4,53.4,29.98,SE,140,3.0,4.0,38,0.00,,,0.00,Wunderground v.1.15,2013-10-02 19:16:00,
2013-10-02 14:17:00,81.4,53.4,29.98,ESE,119,4.0,4.0,38,0.00,,,0.00,Wunderground v.1.15,2013-10-02 19:17:00,
2013-10-02 14:21:00,81.5,54.2,29.98,South,178,3.0,5.0,39,0.00,,,0.00,Wunderground v.1.15,2013-10-02 19:21:00,
2013-10-02 14:22:00,81.5,54.2,29.98,SSE,164,3.0,10.0,39,0.00,,,0.00,Wunderground v.1.15,2013-10-02 19:22:00,
2013-10-02 14:23:00,81.6,53.5,29.98,South,171,3.0,10.0,38,0.00,,,0.00,Wunderground v.1.15,2013-10-02 19:23:00,
2013-10-02 14:27:00,81.8,53.0,29.98,SSE,168,3.0,10.0,37,0.00,,,0.00,Wunderground v.1.15,2013-10-02 19:27:00,
2013-10-02 14:28:00,81.8,54.4,29.98,South,169,3.0,10.0,39,0.00,,,0.00,Wunderground v.1.15,2013-10-02 19:28:00,
2013-10-02 14:29:00,81.8,53.0,29.98,South,169,3.0,10.0,37,0.00,,,0.00,Wunderground v.1.15,2013-10-02 19:29:00,
2013-10-02 14:31:00,81.8,53.7,29.97,ENE,65,3.0,9.0,38,0.00,,,0.00,Wunderground v.1.15,2013-10-02 19:31:00,
2013-10-02 14:32:00,81.8,53.7,29.98,East,97,3.0,9.0,38,0.00,,,0.00,Wunderground v.1.15,2013-10-02 19:32:00,
2013-10-02 14:37:00,81.8,53.7,29.98,SE,137,3.0,9.0,38,0.00,,,0.00,Wunderground v.1.15,2013-10-02 19:37:00,
2013-10-02 14:38:00,81.9,55.2,29.98,SE,143,3.0,9.0,40,0.00,,,0.00,Wunderground v.1.15,2013-10-02 19:38:00,
2013-10-02 14:39:00,81.9,54.5,29.97,SE,138,3.0,9.0,39,0.00,,,0.00,Wunderground v.1.15,2013-10-02 19:39:00,
2013-10-02 14:42:00,82.0,53.9,29.97,ESE,121,2.0,3.0,38,0.00,,,0.00,Wunderground v.1.15,2013-10-02 19:42:00,
2013-10-02 14:43:00,82.0,54.6,29.97,ESE,103,2.0,3.0,39,0.00,,,0.00,Wunderground v.1.15,2013-10-02 19:43:00,
2013-10-02 14:44:00,82.1,54.7,29.97,ESE,104,2.0,3.0,39,0.00,,,0.00,Wunderground v.1.15,2013-10-02 19:44:00,
2013-10-02 14:45:00,82.1,54.0,29.97,ESE,105,2.0,3.0,38,0.00,,,0.00,Wunderground v.1.15,2013-10-02 19:45:00,
2013-10-02 14:49:00,82.1,54.7,29.97,ESE,109,2.0,5.0,39,0.00,,,0.00,Wunderground v.1.15,2013-10-02 19:49:00,
2013-10-02 14:51:00,82.0,53.9,29.97,East,95,2.0,3.0,38,0.00,,,0.00,Wunderground v.1.15,2013-10-02 19:51:00,
2013-10-02 14:52:00,82.0,53.9,29.97,East,100,2.0,3.0,38,0.00,,,0.00,Wunderground v.1.15,2013-10-02 19:52:00,
2013-10-02 14:53:00,82.0,53.9,29.97,SSE,150,3.0,4.0,38,0.00,,,0.00,Wunderground v.1.15,2013-10-02 19:53:00,
2013-10-02 14:54:00,81.9,53.8,29.97,SE,126,3.0,4.0,38,0.00,,,0.00,Wunderground v.1.15,2013-10-02 19:54:00,
2013-10-02 14:56:00,81.8,53.7,29.97,ESE,103,3.0,6.0,38,0.00,,,0.00,Wunderground v.1.15,2013-10-02 19:56:00,
2013-10-02 14:57:00,81.8,53.7,29.97,East,91,3.0,6.0,38,0.00,,,0.00,Wunderground v.1.15,2013-10-02 19:57:00,
2013-10-02 15:01:00,81.8,55.1,29.97,East,90,3.0,4.0,40,0.00,,,0.00,Wunderground v.1.15,2013-10-02 20:01:00,
2013-10-02 15:02:00,81.8,55.1,29.96,NNE,30,3.0,4.0,40,0.00,,,0.00,Wunderground v.1.15,2013-10-02 20:02:00,
2013-10-02 15:03:00,81.9,55.9,29.97,East,100,3.0,4.0,41,0.00,,,0.00,Wunderground v.1.15,2013-10-02 20:03:00,
2013-10-02 15:04:00,81.9,55.2,29.97,East,100,4.0,4.0,40,0.00,,,0.00,Wunderground v.1.15,2013-10-02 20:04:00,
2013-10-02 15:05:00,81.9,55.9,29.96,NE,51,3.0,4.0,41,0.00,,,0.00,Wunderground v.1.15,2013-10-02 20:05:00,
2013-10-02 15:06:00,82.0,56.0,29.97,ENE,70,3.0,4.0,41,0.00,,,0.00,Wunderground v.1.15,2013-10-02 20:06:00,
2013-10-02 15:07:00,82.1,56.7,29.97,ENE,71,3.0,4.0,42,0.00,,,0.00,Wunderground v.1.15,2013-10-02 20:07:00,
2013-10-02 15:08:00,82.1,56.1,29.96,East,101,3.0,4.0,41,0.00,,,0.00,Wunderground v.1.15,2013-10-02 20:08:00,
2013-10-02 15:09:00,82.2,55.5,29.97,East,90,3.0,5.0,40,0.00,,,0.00,Wunderground v.1.15,2013-10-02 20:09:00,
2013-10-02 15:12:00,82.3,55.6,29.97,South,175,3.0,4.0,40,0.00,,,0.00,Wunderground v.1.15,2013-10-02 20:12:00,
2013-10-02 15:13:00,82.3,55.6,29.97,SE,134,3.0,4.0,40,0.00,,,0.00,Wunderground v.1.15,2013-10-02 20:13:00,
2013-10-02 15:14:00,82.3,56.2,29.97,SSE,152,3.0,4.0,41,0.00,,,0.00,Wunderground v.1.15,2013-10-02 20:14:00,
2013-10-02 15:17:00,82.3,56.2,29.97,SE,138,3.0,4.0,41,0.00,,,0.00,Wunderground v.1.15,2013-10-02 20:17:00,
2013-10-02 15:19:00,82.3,56.2,29.97,ESE,103,3.0,4.0,41,0.00,,,0.00,Wunderground v.1.15,2013-10-02 20:19:00,
2013-10-02 15:20:00,82.3,56.2,29.97,East,101,3.0,3.0,41,0.00,,,0.00,Wunderground v.1.15,2013-10-02 20:20:00,
2013-10-02 15:22:00,82.2,56.8,29.96,ESE,118,2.0,5.0,42,0.00,,,0.00,Wunderground v.1.15,2013-10-02 20:22:00,
2013-10-02 15:23:00,82.2,56.8,29.96,ESE,117,2.0,5.0,42,0.00,,,0.00,Wunderground v.1.15,2013-10-02 20:23:00,
2013-10-02 15:24:00,82.2,57.5,29.96,SE,138,2.0,5.0,43,0.00,,,0.00,Wunderground v.1.15,2013-10-02 20:24:00,
2013-10-02 15:27:00,82.2,56.8,29.96,SE,143,3.0,5.0,42,0.00,,,0.00,Wunderground v.1.15,2013-10-02 20:27:00,
2013-10-02 15:28:00,82.2,57.5,29.96,SSE,148,3.0,5.0,43,0.00,,,0.00,Wunderground v.1.15,2013-10-02 20:28:00,
2013-10-02 15:29:00,82.2,57.5,29.96,SSE,153,3.0,5.0,43,0.00,,,0.00,Wunderground v.1.15,2013-10-02 20:29:00,
2013-10-02 15:30:00,82.2,58.1,29.96,SSE,153,2.0,2.0,44,0.00,,,0.00,Wunderground v.1.15,2013-10-02 20:30:00,
2013-10-02 15:32:00,82.2,58.1,29.96,SSE,153,2.0,3.0,44,0.00,,,0.00,Wunderground v.1.15,2013-10-02 20:32:00,
2013-10-02 15:33:00,82.2,58.7,29.96,SSE,153,2.0,3.0,45,0.00,,,0.00,Wunderground v.1.15,2013-10-02 20:33:00,
2013-10-02 15:34:00,82.3,57.6,29.96,SSE,152,2.0,4.0,43,0.00,,,0.00,Wunderground v.1.15,2013-10-02 20:34:00,
2013-10-02 15:36:00,82.3,57.6,29.96,SE,126,1.0,4.0,43,0.00,,,0.00,Wunderground v.1.15,2013-10-02 20:36:00,
2013-10-02 15:37:00,82.3,58.2,29.96,SE,126,1.0,4.0,44,0.00,,,0.00,Wunderground v.1.15,2013-10-02 20:37:00,
2013-10-02 15:41:00,82.4,58.3,29.95,SE,134,2.0,5.0,44,0.00,,,0.00,Wunderground v.1.15,2013-10-02 20:41:00,
2013-10-02 15:43:00,82.4,58.3,29.95,East,89,2.0,5.0,44,0.00,,,0.00,Wunderground v.1.15,2013-10-02 20:43:00,
2013-10-02 15:44:00,82.4,58.3,29.95,East,96,2.0,5.0,44,0.00,,,0.00,Wunderground v.1.15,2013-10-02 20:44:00,
2013-10-02 15:46:00,82.3,58.2,29.95,SSE,148,3.0,5.0,44,0.00,,,0.00,Wunderground v.1.15,2013-10-02 20:46:00,
2013-10-02 15:48:00,82.3,58.2,29.95,ESE,113,3.0,5.0,44,0.00,,,0.00,Wunderground v.1.15,2013-10-02 20:48:00,
2013-10-02 15:50:00,82.2,58.1,29.95,ESE,105,3.0,3.0,44,0.00,,,0.00,Wunderground v.1.15,2013-10-02 20:50:00,
2013-10-02 15:51:00,82.1,58.0,29.95,ESE,113,2.0,3.0,44,0.00,,,0.00,Wunderground v.1.15,2013-10-02 20:51:00,
2013-10-02 15:53:00,82.1,58.7,29.95,ESE,121,2.0,4.0,45,0.00,,,0.00,Wunderground v.1.15,2013-10-02 20:53:00,
2013-10-02 15:56:00,82.0,57.9,29.95,SE,127,2.0,4.0,44,0.00,,,0.00,Wunderground v.1.15,2013-10-02 20:56:00,
2013-10-02 15:57:00,82.0,58.6,29.95,SE,127,2.0,4.0,45,0.00,,,0.00,Wunderground v.1.15,2013-10-02 20:57:00,
2013-10-02 15:58:00,82.0,58.6,29.95,SE,138,2.0,4.0,45,0.00,,,0.00,Wunderground v.1.15,2013-10-02 20:58:00,
2013-10-02 16:00:00,82.1,59.3,29.95,SE,138,1.0,1.0,46,0.00,,,0.00,Wunderground v.1.15,2013-10-02 21:00:00,
2013-10-02 16:02:00,82.2,58.7,29.94,SE,138,1.0,1.0,45,0.00,,,0.00,Wunderground v.1.15,2013-10-02 21:02:00,
2013-10-02 16:04:00,82.3,58.8,29.94,SE,141,1.0,4.0,45,0.00,,,0.00,Wunderground v.1.15,2013-10-02 21:04:00,
2013-10-02 16:06:00,82.4,58.9,29.94,ESE,119,1.0,4.0,45,0.00,,,0.00,Wunderground v.1.15,2013-10-02 21:06:00,
2013-10-02 16:07:00,82.3,58.8,29.95,ESE,120,1.0,4.0,45,0.00,,,0.00,Wunderground v.1.15,2013-10-02 21:07:00,
2013-10-02 16:08:00,82.4,58.3,29.95,SE,146,1.0,4.0,44,0.00,,,0.00,Wunderground v.1.15,2013-10-02 21:08:00,
2013-10-02 16:11:00,82.3,58.8,29.94,SSE,154,2.0,4.0,45,0.00,,,0.00,Wunderground v.1.15,2013-10-02 21:11:00,
2013-10-02 16:12:00,82.3,58.2,29.94,SSE,153,2.0,4.0,44,0.00,,,0.00,Wunderground v.1.15,2013-10-02 21:12:00,
2013-10-02 16:14:00,82.3,59.4,29.94,SSE,153,2.0,4.0,46,0.00,,,0.00,Wunderground v.1.15,2013-10-02 21:14:00,
2013-10-02 16:15:00,82.3,59.4,29.94,SSE,153,2.0,4.0,46,0.00,,,0.00,Wunderground v.1.15,2013-10-02 21:15:00,
2013-10-02 16:17:00,82.3,58.2,29.94,ESE,113,2.0,6.0,44,0.00,,,0.00,Wunderground v.1.15,2013-10-02 21:17:00,
2013-10-02 16:20:00,82.3,58.2,29.94,ESE,123,2.0,2.0,44,0.00,,,0.00,Wunderground v.1.15,2013-10-02 21:20:00,
2013-10-02 16:21:00,82.3,58.2,29.93,East,96,2.0,4.0,44,0.00,,,0.00,Wunderground v.1.15,2013-10-02 21:21:00,
2013-10-02 16:22:00,82.4,58.3,29.93,East,94,2.0,4.0,44,0.00,,,0.00,Wunderground v.1.15,2013-10-02 21:22:00,
2013-10-02 16:24:00,82.4,57.7,29.94,ENE,61,3.0,4.0,43,0.00,,,0.00,Wunderground v.1.15,2013-10-02 21:24:00,
2013-10-02 16:29:00,82.2,57.5,29.93,SE,140,3.0,5.0,43,0.00,,,0.00,Wunderground v.1.15,2013-10-02 21:29:00,
2013-10-02 16:30:00,82.2,58.1,29.93,SE,140,3.0,4.0,44,0.00,,,0.00,Wunderground v.1.15,2013-10-02 21:30:00,
2013-10-02 16:33:00,82.1,58.7,29.93,ENE,74,3.0,4.0,45,0.00,,,0.00,Wunderground v.1.15,2013-10-02 21:33:00,
2013-10-02 16:35:00,82.1,58.7,29.93,ENE,74,2.0,4.0,45,0.00,,,0.00,Wunderground v.1.15,2013-10-02 21:35:00,
2013-10-02 16:37:00,82.2,58.7,29.94,East,79,2.0,4.0,45,0.00,,,0.00,Wunderground v.1.15,2013-10-02 21:37:00,
2013-10-02 16:39:00,82.2,59.4,29.94,East,80,1.0,4.0,46,0.00,,,0.00,Wunderground v.1.15,2013-10-02 21:39:00,
2013-10-02 16:40:00,82.3,58.8,29.93,SE,135,1.0,2.0,45,0.00,,,0.00,Wunderground v.1.15,2013-10-02 21:40:00,
2013-10-02 16:45:00,82.0,59.2,29.93,East,100,2.0,5.0,46,0.00,,,0.00,Wunderground v.1.15,2013-10-02 21:45:00,
2013-10-02 16:47:00,82.0,58.6,29.93,SE,126,2.0,5.0,45,0.00,,,0.00,Wunderground v.1.15,2013-10-02 21:47:00,
2013-10-02 16:49:00,81.9,58.5,29.93,SE,130,3.0,5.0,45,0.00,,,0.00,Wunderground v.1.15,2013-10-02 21:49:00,
2013-10-02 16:52:00,81.7,58.3,29.93,ESE,118,2.0,3.0,45,0.00,,,0.00,Wunderground v.1.15,2013-10-02 21:52:00,
2013-10-02 16:53:00,81.7,58.3,29.93,ESE,119,2.0,3.0,45,0.00,,,0.00,Wunderground v.1.15,2013-10-02 21:53:00,
2013-10-02 16:54:00,81.6,58.2,29.93,ESE,119,2.0,3.0,45,0.00,,,0.00,Wunderground v.1.15,2013-10-02 21:54:00,
2013-10-02 16:55:00,81.6,58.2,29.93,ESE,119,2.0,3.0,45,0.00,,,0.00,Wunderground v.1.15,2013-10-02 21:55:00,
2013-10-02 16:57:00,81.5,58.7,29.93,SE,129,1.0,3.0,46,0.00,,,0.00,Wunderground v.1.15,2013-10-02 21:57:00,
2013-10-02 17:00:00,81.4,59.2,29.93,ESE,111,2.0,2.0,47,0.00,,,0.00,Wunderground v.1.15,2013-10-02 22:00:00,
2013-10-02 17:02:00,81.2,59.1,29.93,SE,128,2.0,2.0,47,0.00,,,0.00,Wunderground v.1.15,2013-10-02 22:02:00,
2013-10-02 17:03:00,81.2,59.1,29.93,SE,128,2.0,3.0,47,0.00,,,0.00,Wunderground v.1.15,2013-10-02 22:03:00,
2013-10-02 17:04:00,81.1,59.0,29.93,SE,128,2.0,3.0,47,0.00,,,0.00,Wunderground v.1.15,2013-10-02 22:04:00,
2013-10-02 17:05:00,81.1,59.0,29.93,SE,126,2.0,3.0,47,0.00,,,0.00,Wunderground v.1.15,2013-10-02 22:05:00,
2013-10-02 17:10:00,80.8,58.1,29.93,ESE,115,1.0,1.0,46,0.00,,,0.00,Wunderground v.1.15,2013-10-02 22:10:00,
2013-10-02 17:12:00,80.8,58.7,29.93,ESE,115,1.0,4.0,47,0.00,,,0.00,Wunderground v.1.15,2013-10-02 22:12:00,
2013-10-02 17:15:00,80.7,58.0,29.93,ESE,109,2.0,4.0,46,0.00,,,0.00,Wunderground v.1.15,2013-10-02 22:15:00,
2013-10-02 17:16:00,80.6,57.9,29.93,ESE,109,2.0,4.0,46,0.00,,,0.00,Wunderground v.1.15,2013-10-02 22:16:00,
2013-10-02 17:17:00,80.6,57.9,29.93,ESE,109,2.0,4.0,46,0.00,,,0.00,Wunderground v.1.15,2013-10-02 22:17:00,
2013-10-02 17:18:00,80.5,58.4,29.93,ESE,109,2.0,4.0,47,0.00,,,0.00,Wunderground v.1.15,2013-10-02 22:18:00,
2013-10-02 17:23:00,80.3,58.8,29.93,ESE,107,1.0,3.0,48,0.00,,,0.00,Wunderground v.1.15,2013-10-02 22:23:00,
2013-10-02 17:24:00,80.2,58.7,29.93,ESE,107,1.0,3.0,48,0.00,,,0.00,Wunderground v.1.15,2013-10-02 22:24:00,
2013-10-02 17:25:00,80.2,59.3,29.93,East,101,1.0,3.0,49,0.00,,,0.00,Wunderground v.1.15,2013-10-02 22:25:00,
2013-10-02 17:28:00,80.1,58.6,29.93,East,101,1.0,3.0,48,0.00,,,0.00,Wunderground v.1.15,2013-10-02 22:28:00,
2013-10-02 17:29:00,80.1,58.6,29.93,East,101,1.0,3.0,48,0.00,,,0.00,Wunderground v.1.15,2013-10-02 22:29:00,
2013-10-02 17:33:00,79.9,58.5,29.92,East,101,1.0,2.0,48,0.00,,,0.00,Wunderground v.1.15,2013-10-02 22:33:00,
2013-10-02 17:34:00,79.9,58.5,29.93,East,101,1.0,2.0,48,0.00,,,0.00,Wunderground v.1.15,2013-10-02 22:34:00,
2013-10-02 17:35:00,79.9,58.5,29.93,East,101,1.0,2.0,48,0.00,,,0.00,Wunderground v.1.15,2013-10-02 22:35:00,
2013-10-02 17:36:00,79.8,57.8,29.93,ESE,105,1.0,2.0,47,0.00,,,0.00,Wunderground v.1.15,2013-10-02 22:36:00,
2013-10-02 17:37:00,79.8,58.4,29.93,ESE,105,1.0,2.0,48,0.00,,,0.00,Wunderground v.1.15,2013-10-02 22:37:00,
2013-10-02 17:39:00,79.7,58.8,29.93,ESE,105,1.0,2.0,49,0.00,,,0.00,Wunderground v.1.15,2013-10-02 22:39:00,
2013-10-02 17:41:00,79.5,58.7,29.93,ESE,105,0.0,1.0,49,0.00,,,0.00,Wunderground v.1.15,2013-10-02 22:41:00,
2013-10-02 17:42:00,79.5,59.8,29.93,ESE,105,0.0,1.0,51,0.00,,,0.00,Wunderground v.1.15,2013-10-02 22:42:00,
2013-10-02 17:45:00,79.3,59.0,29.93,ESE,105,0.0,1.0,50,0.00,,,0.00,Wunderground v.1.15,2013-10-02 22:45:00,
2013-10-02 17:47:00,79.3,59.0,29.93,ESE,105,0.0,1.0,50,0.00,,,0.00,Wunderground v.1.15,2013-10-02 22:47:00,
2013-10-02 17:48:00,79.2,59.5,29.93,ESE,105,0.0,1.0,51,0.00,,,0.00,Wunderground v.1.15,2013-10-02 22:48:00,
2013-10-02 17:49:00,79.1,60.0,29.93,ESE,105,0.0,1.0,52,0.00,,,0.00,Wunderground v.1.15,2013-10-02 22:49:00,
2013-10-02 17:50:00,79.1,60.0,29.93,ESE,112,0.0,5.0,52,0.00,,,0.00,Wunderground v.1.15,2013-10-02 22:50:00,
2013-10-02 17:52:00,79.0,60.9,29.93,ESE,113,0.0,5.0,54,0.00,,,0.00,Wunderground v.1.15,2013-10-02 22:52:00,
2013-10-02 17:54:00,78.9,61.9,29.93,SE,134,1.0,7.0,56,0.00,,,0.00,Wunderground v.1.15,2013-10-02 22:54:00,
2013-10-02 17:58:00,78.7,62.7,29.93,South,172,2.0,7.0,58,0.00,,,0.00,Wunderground v.1.15,2013-10-02 22:58:00,
2013-10-02 17:59:00,78.7,62.7,29.93,SSE,155,2.0,7.0,58,0.00,,,0.00,Wunderground v.1.15,2013-10-02 22:59:00,
2013-10-02 18:00:00,78.6,62.6,29.93,SE,142,2.0,8.0,58,0.00,,,0.00,Wunderground v.1.15,2013-10-02 23:00:00,
2013-10-02 18:01:00,78.5,63.0,29.93,SE,144,2.0,8.0,59,0.00,,,0.00,Wunderground v.1.15,2013-10-02 23:01:00,
2013-10-02 18:04:00,78.4,62.9,29.93,ESE,113,2.0,8.0,59,0.00,,,0.00,Wunderground v.1.15,2013-10-02 23:04:00,
2013-10-02 18:05:00,78.4,62.9,29.93,ESE,113,2.0,8.0,59,0.00,,,0.00,Wunderground v.1.15,2013-10-02 23:05:00,
2013-10-02 18:07:00,78.3,63.3,29.92,ESE,114,2.0,8.0,60,0.00,,,0.00,Wunderground v.1.15,2013-10-02 23:07:00,
2013-10-02 18:10:00,78.2,63.2,29.93,SE,128,2.0,2.0,60,0.00,,,0.00,Wunderground v.1.15,2013-10-02 23:10:00,
2013-10-02 18:14:00,78.0,63.5,29.93,SE,138,2.0,5.0,61,0.00,,,0.00,Wunderground v.1.15,2013-10-02 23:14:00,
2013-10-02 18:15:00,77.9,63.4,29.93,SE,136,2.0,5.0,61,0.00,,,0.00,Wunderground v.1.15,2013-10-02 23:15:00,
2013-10-02 18:17:00,77.9,63.4,29.93,SSE,155,3.0,5.0,61,0.00,,,0.00,Wunderground v.1.15,2013-10-02 23:17:00,
2013-10-02 18:18:00,77.8,63.3,29.93,SSE,155,3.0,5.0,61,0.00,,,0.00,Wunderground v.1.15,2013-10-02 23:18:00,
2013-10-02 18:19:00,77.8,63.3,29.93,SSE,155,2.0,5.0,61,0.00,,,0.00,Wunderground v.1.15,2013-10-02 23:19:00,
2013-10-02 18:20:00,77.7,63.2,29.93,SSE,154,2.0,2.0,61,0.00,,,0.00,Wunderground v.1.15,2013-10-02 23:20:00,
2013-10-02 18:22:00,77.6,63.1,29.93,SSE,154,2.0,2.0,61,0.00,,,0.00,Wunderground v.1.15,2013-10-02 23:22:00,
2013-10-02 18:23:00,77.6,63.1,29.93,SSE,154,2.0,3.0,61,0.00,,,0.00,Wunderground v.1.15,2013-10-02 23:23:00,
2013-10-02 18:24:00,77.5,63.0,29.93,SSE,152,2.0,3.0,61,0.00,,,0.00,Wunderground v.1.15,2013-10-02 23:24:00,
2013-10-02 18:27:00,77.4,63.4,29.93,SSE,152,1.0,3.0,62,0.00,,,0.00,Wunderground v.1.15,2013-10-02 23:27:00,
2013-10-02 18:28:00,77.3,63.3,29.93,SSE,152,1.0,3.0,62,0.00,,,0.00,Wunderground v.1.15,2013-10-02 23:28:00,
2013-10-02 18:29:00,77.3,63.3,29.93,SSE,152,1.0,3.0,62,0.00,,,0.00,Wunderground v.1.15,2013-10-02 23:29:00,
2013-10-02 18:30:00,77.3,63.3,29.93,SSE,152,1.0,1.0,62,0.00,,,0.00,Wunderground v.1.15,2013-10-02 23:30:00,
2013-10-02 18:31:00,77.1,63.1,29.93,SSE,152,1.0,1.0,62,0.00,,,0.00,Wunderground v.1.15,2013-10-02 23:31:00,
2013-10-02 18:35:00,76.9,62.9,29.93,SSE,152,0.0,1.0,62,0.00,,,0.00,Wunderground v.1.15,2013-10-02 23:35:00,
2013-10-02 18:36:00,76.8,62.8,29.93,SSE,152,0.0,1.0,62,0.00,,,0.00,Wunderground v.1.15,2013-10-02 23:36:00,
2013-10-02 18:37:00,76.8,62.8,29.93,SSE,152,0.0,1.0,62,0.00,,,0.00,Wunderground v.1.15,2013-10-02 23:37:00,
2013-10-02 18:40:00,76.6,62.6,29.93,SSE,151,0.0,0.0,62,0.00,,,0.00,Wunderground v.1.15,2013-10-02 23:40:00,
2013-10-02 18:41:00,76.4,62.9,29.93,SSE,151,0.0,0.0,63,0.00,,,0.00,Wunderground v.1.15,2013-10-02 23:41:00,
2013-10-02 18:42:00,76.4,62.9,29.93,SSE,151,0.0,0.0,63,0.00,,,0.00,Wunderground v.1.15,2013-10-02 23:42:00,
2013-10-02 18:44:00,76.2,61.8,29.93,SE,144,1.0,4.0,61,0.00,,,0.00,Wunderground v.1.15,2013-10-02 23:44:00,
2013-10-02 18:45:00,76.1,61.7,29.94,SE,144,1.0,4.0,61,0.00,,,0.00,Wunderground v.1.15,2013-10-02 23:45:00,
2013-10-02 18:48:00,75.9,61.5,29.93,SE,144,1.0,4.0,61,0.00,,,0.00,Wunderground v.1.15,2013-10-02 23:48:00,
2013-10-02 18:49:00,75.8,61.4,29.93,SE,144,1.0,4.0,61,0.00,,,0.00,Wunderground v.1.15,2013-10-02 23:49:00,
2013-10-02 18:50:00,75.7,61.3,29.93,SE,144,1.0,1.0,61,0.00,,,0.00,Wunderground v.1.15,2013-10-02 23:50:00,
2013-10-02 18:53:00,75.5,60.6,29.93,SE,144,1.0,1.0,60,0.00,,,0.00,Wunderground v.1.15,2013-10-02 23:53:00,
2013-10-02 18:54:00,75.5,60.6,29.93,SE,144,0.0,1.0,60,0.00,,,0.00,Wunderground v.1.15,2013-10-02 23:54:00,
2013-10-02 18:55:00,75.4,61.0,29.93,SE,144,0.0,1.0,61,0.00,,,0.00,Wunderground v.1.15,2013-10-02 23:55:00,
2013-10-02 18:56:00,75.3,60.5,29.93,SE,144,0.0,1.0,60,0.00,,,0.00,Wunderground v.1.15,2013-10-02 23:56:00,
2013-10-02 18:59:00,75.2,60.4,29.93,SE,144,0.0,1.0,60,0.00,,,0.00,Wunderground v.1.15,2013-10-02 23:59:00,
2013-10-02 19:02:00,75.0,60.2,29.94,SE,126,1.0,1.0,60,0.00,,,0.00,Wunderground v.1.15,2013-10-03 00:02:00,
2013-10-02 19:03:00,74.9,60.1,29.94,SE,126,1.0,1.0,60,0.00,,,0.00,Wunderground v.1.15,2013-10-03 00:03:00,
2013-10-02 19:04:00,74.9,59.6,29.93,SE,126,1.0,1.0,59,0.00,,,0.00,Wunderground v.1.15,2013-10-03 00:04:00,
2013-10-02 19:05:00,74.9,59.1,29.94,SE,124,1.0,2.0,58,0.00,,,0.00,Wunderground v.1.15,2013-10-03 00:05:00,
2013-10-02 19:09:00,74.7,58.5,29.94,SE,140,1.0,6.0,57,0.00,,,0.00,Wunderground v.1.15,2013-10-03 00:09:00,
2013-10-02 19:10:00,74.7,58.0,29.94,SSE,148,2.0,4.0,56,0.00,,,0.00,Wunderground v.1.15,2013-10-03 00:10:00,
2013-10-02 19:12:00,74.7,58.0,29.94,SSE,148,2.0,4.0,56,0.00,,,0.00,Wunderground v.1.15,2013-10-03 00:12:00,
2013-10-02 19:15:00,74.6,57.9,29.93,SSE,148,2.0,4.0,56,0.00,,,0.00,Wunderground v.1.15,2013-10-03 00:15:00,
2013-10-02 19:17:00,74.6,57.9,29.93,ESE,123,2.0,5.0,56,0.00,,,0.00,Wunderground v.1.15,2013-10-03 00:17:00,
2013-10-02 19:19:00,74.5,57.3,29.93,SE,127,2.0,5.0,55,0.00,,,0.00,Wunderground v.1.15,2013-10-03 00:19:00,
2013-10-02 19:23:00,74.4,57.7,29.93,SE,128,1.0,2.0,56,0.00,,,0.00,Wunderground v.1.15,2013-10-03 00:23:00,
2013-10-02 19:24:00,74.4,57.2,29.93,SE,128,1.0,2.0,55,0.00,,,0.00,Wunderground v.1.15,2013-10-03 00:24:00,
2013-10-02 19:26:00,74.3,57.1,29.93,SE,143,2.0,2.0,55,0.00,,,0.00,Wunderground v.1.15,2013-10-03 00:26:00,
2013-10-02 19:27:00,74.2,57.0,29.93,SE,143,2.0,2.0,55,0.00,,,0.00,Wunderground v.1.15,2013-10-03 00:27:00,
2013-10-02 19:28:00,74.2,57.0,29.93,SE,142,1.0,2.0,55,0.00,,,0.00,Wunderground v.1.15,2013-10-03 00:28:00,
2013-10-02 19:29:00,74.2,57.0,29.93,SE,142,1.0,3.0,55,0.00,,,0.00,Wunderground v.1.15,2013-10-03 00:29:00,
2013-10-02 19:34:00,74.0,56.8,29.93,SE,139,2.0,3.0,55,0.00,,,0.00,Wunderground v.1.15,2013-10-03 00:34:00,
2013-10-02 19:35:00,74.0,57.3,29.93,SE,127,2.0,3.0,56,0.00,,,0.00,Wunderground v.1.15,2013-10-03 00:35:00,
2013-10-02 19:36:00,73.9,56.7,29.93,SE,128,2.0,3.0,55,0.00,,,0.00,Wunderground v.1.15,2013-10-03 00:36:00,
2013-10-02 19:38:00,73.8,56.6,29.93,SE,128,2.0,3.0,55,0.00,,,0.00,Wunderground v.1.15,2013-10-03 00:38:00,
2013-10-02 19:39:00,73.8,56.6,29.93,SE,127,2.0,3.0,55,0.00,,,0.00,Wunderground v.1.15,2013-10-03 00:39:00,
2013-10-02 19:40:00,73.8,56.6,29.93,SE,127,1.0,1.0,55,0.00,,,0.00,Wunderground v.1.15,2013-10-03 00:40:00,
2013-10-02 19:42:00,73.7,56.5,29.93,SE,127,1.0,2.0,55,0.00,,,0.00,Wunderground v.1.15,2013-10-03 00:42:00,
2013-10-02 19:44:00,73.6,56.4,29.94,SE,131,1.0,2.0,55,0.00,,,0.00,Wunderground v.1.15,2013-10-03 00:44:00,
2013-10-02 19:47:00,73.5,56.3,29.93,SE,131,1.0,2.0,55,0.00,,,0.00,Wunderground v.1.15,2013-10-03 00:47:00,
2013-10-02 19:49:00,73.5,56.3,29.93,SE,130,1.0,2.0,55,0.00,,,0.00,Wunderground v.1.15,2013-10-03 00:49:00,
2013-10-02 19:51:00,73.3,56.2,29.93,ESE,123,2.0,4.0,55,0.00,,,0.00,Wunderground v.1.15,2013-10-03 00:51:00,
2013-10-02 19:52:00,73.3,56.2,29.93,ESE,123,2.0,4.0,55,0.00,,,0.00,Wunderground v.1.15,2013-10-03 00:52:00,
2013-10-02 19:53:00,73.3,56.2,29.93,ESE,123,2.0,4.0,55,0.00,,,0.00,Wunderground v.1.15,2013-10-03 00:53:00,
2013-10-02 19:54:00,73.3,56.2,29.93,ESE,123,2.0,4.0,55,0.00,,,0.00,Wunderground v.1.15,2013-10-03 00:54:00,
2013-10-02 19:55:00,73.2,56.1,29.93,ESE,123,1.0,4.0,55,0.00,,,0.00,Wunderground v.1.15,2013-10-03 00:55:00,
2013-10-02 19:59:00,73.0,55.9,29.93,ESE,105,2.0,6.0,55,0.00,,,0.00,Wunderground v.1.15,2013-10-03 00:59:00,
2013-10-02 20:00:00,73.0,55.9,29.93,ESE,105,2.0,2.0,55,0.00,,,0.00,Wunderground v.1.15,2013-10-03 01:00:00,
2013-10-02 20:01:00,72.9,55.8,29.93,ESE,113,1.0,2.0,55,0.00,,,0.00,Wunderground v.1.15,2013-10-03 01:01:00,
2013-10-02 20:02:00,72.9,55.8,29.93,ESE,113,1.0,2.0,55,0.00,,,0.00,Wunderground v.1.15,2013-10-03 01:02:00,
2013-10-02 20:07:00,72.7,55.6,29.93,ESE,120,2.0,5.0,55,0.00,,,0.00,Wunderground v.1.15,2013-10-03 01:07:00,
2013-10-02 20:09:00,72.6,55.0,29.93,SE,127,2.0,5.0,54,0.00,,,0.00,Wunderground v.1.15,2013-10-03 01:09:00,
2013-10-02 20:10:00,72.6,55.5,29.93,SE,127,2.0,2.0,55,0.00,,,0.00,Wunderground v.1.15,2013-10-03 01:10:00,
2013-10-02 20:12:00,72.5,55.4,29.93,SE,129,2.0,3.0,55,0.00,,,0.00,Wunderground v.1.15,2013-10-03 01:12:00,
2013-10-02 20:13:00,72.5,55.4,29.93,SE,129,2.0,3.0,55,0.00,,,0.00,Wunderground v.1.15,2013-10-03 01:13:00,
2013-10-02 20:15:00,72.4,54.8,29.93,SE,129,2.0,3.0,54,0.00,,,0.00,Wunderground v.1.15,2013-10-03 01:15:00,
2013-10-02 20:18:00,72.3,55.2,29.93,SE,130,2.0,3.0,55,0.00,,,0.00,Wunderground v.1.15,2013-10-03 01:18:00,
2013-10-02 20:19:00,72.2,55.1,29.93,SE,124,2.0,3.0,55,0.00,,,0.00,Wunderground v.1.15,2013-10-03 01:19:00,
2013-10-02 20:20:00,72.2,55.1,29.93,ESE,113,2.0,2.0,55,0.00,,,0.00,Wunderground v.1.15,2013-10-03 01:20:00,
2013-10-02 20:23:00,72.0,54.9,29.93,ESE,115,1.0,2.0,55,0.00,,,0.00,Wunderground v.1.15,2013-10-03 01:23:00,
2013-10-02 20:25:00,71.8,54.8,29.93,ESE,115,1.0,2.0,55,0.00,,,0.00,Wunderground v.1.15,2013-10-03 01:25:00,
2013-10-02 20:29:00,71.6,55.1,29.93,ESE,120,1.0,3.0,56,0.00,,,0.00,Wunderground v.1.15,2013-10-03 01:29:00,
2013-10-02 20:32:00,71.4,54.9,29.93,ESE,106,1.0,3.0,56,0.00,,,0.00,Wunderground v.1.15,2013-10-03 01:32:00,
2013-10-02 20:34:00,71.2,54.7,29.93,ESE,119,2.0,3.0,56,0.00,,,0.00,Wunderground v.1.15,2013-10-03 01:34:00,
2013-10-02 20:35:00,71.2,54.7,29.93,ESE,119,2.0,3.0,56,0.00,,,0.00,Wunderground v.1.15,2013-10-03 01:35:00,
2013-10-02 20:38:00,71.0,55.0,29.93,ESE,119,2.0,3.0,57,0.00,,,0.00,Wunderground v.1.15,2013-10-03 01:38:00,
2013-10-02 20:40:00,70.8,54.8,29.93,ESE,119,2.0,3.0,57,0.00,,,0.00,Wunderground v.1.15,2013-10-03 01:40:00,
2013-10-02 20:42:00,70.7,54.7,29.93,ESE,119,1.0,3.0,57,0.00,,,0.00,Wunderground v.1.15,2013-10-03 01:42:00,
2013-10-02 20:43:00,70.6,55.1,29.93,ESE,119,1.0,3.0,58,0.00,,,0.00,Wunderground v.1.15,2013-10-03 01:43:00,
2013-10-02 20:44:00,70.5,55.0,29.93,ESE,119,1.0,3.0,58,0.00,,,0.00,Wunderground v.1.15,2013-10-03 01:44:00,
2013-10-02 20:46:00,70.3,54.8,29.93,ESE,119,1.0,3.0,58,0.00,,,0.00,Wunderground v.1.15,2013-10-03 01:46:00,
2013-10-02 20:49:00,70.1,54.6,29.93,ESE,119,1.0,3.0,58,0.00,,,0.00,Wunderground v.1.15,2013-10-03 01:49:00,
2013-10-02 20:50:00,70.0,54.5,29.93,ESE,115,1.0,4.0,58,0.00,,,0.00,Wunderground v.1.15,2013-10-03 01:50:00,
2013-10-02 20:51:00,69.8,54.8,29.93,ESE,115,1.0,4.0,59,0.00,,,0.00,Wunderground v.1.15,2013-10-03 01:51:00,
2013-10-02 20:53:00,69.7,54.3,29.93,ESE,115,1.0,4.0,58,0.00,,,0.00,Wunderground v.1.15,2013-10-03 01:53:00,
2013-10-02 20:55:00,69.6,54.6,29.93,ESE,114,1.0,4.0,59,0.00,,,0.00,Wunderground v.1.15,2013-10-03 01:55:00,
2013-10-02 20:56:00,69.5,54.5,29.93,ESE,115,1.0,4.0,59,0.00,,,0.00,Wunderground v.1.15,2013-10-03 01:56:00,
2013-10-02 20:59:00,69.3,54.4,29.93,ESE,115,1.0,4.0,59,0.00,,,0.00,Wunderground v.1.15,2013-10-03 01:59:00,
2013-10-02 21:02:00,69.1,54.2,29.93,ESE,115,1.0,2.0,59,0.00,,,0.00,Wunderground v.1.15,2013-10-03 02:02:00,
2013-10-02 21:03:00,69.0,54.1,29.93,ESE,113,1.0,3.0,59,0.00,,,0.00,Wunderground v.1.15,2013-10-03 02:03:00,
2013-10-02 21:04:00,69.0,54.1,29.93,ESE,113,1.0,3.0,59,0.00,,,0.00,Wunderground v.1.15,2013-10-03 02:04:00,
2013-10-02 21:07:00,68.8,53.9,29.93,ESE,113,2.0,6.0,59,0.00,,,0.00,Wunderground v.1.15,2013-10-03 02:07:00,
2013-10-02 21:10:00,68.6,53.7,29.93,SE,124,2.0,2.0,59,0.00,,,0.00,Wunderground v.1.15,2013-10-03 02:10:00,
2013-10-02 21:11:00,68.5,53.6,29.93,SE,124,2.0,2.0,59,0.00,,,0.00,Wunderground v.1.15,2013-10-03 02:11:00,
2013-10-02 21:15:00,68.4,53.5,29.93,ESE,111,2.0,4.0,59,0.00,,,0.00,Wunderground v.1.15,2013-10-03 02:15:00,
2013-10-02 21:20:00,68.3,53.4,29.93,ESE,107,2.0,2.0,59,0.00,,,0.00,Wunderground v.1.15,2013-10-03 02:20:00,
2013-10-02 21:21:00,68.2,53.3,29.93,ESE,109,2.0,2.0,59,0.00,,,0.00,Wunderground v.1.15,2013-10-03 02:21:00,
2013-10-02 21:22:00,68.2,53.3,29.93,ESE,109,2.0,2.0,59,0.00,,,0.00,Wunderground v.1.15,2013-10-03 02:22:00,
2013-10-02 21:23:00,68.2,53.3,29.93,ESE,112,2.0,4.0,59,0.00,,,0.00,Wunderground v.1.15,2013-10-03 02:23:00,
2013-10-02 21:25:00,68.1,53.2,29.94,SE,144,2.0,5.0,59,0.00,,,0.00,Wunderground v.1.15,2013-10-03 02:25:00,
2013-10-02 21:30:00,67.9,53.0,29.94,ESE,123,3.0,3.0,59,0.00,,,0.00,Wunderground v.1.15,2013-10-03 02:30:00,
2013-10-02 21:32:00,67.9,53.0,29.94,SE,124,3.0,3.0,59,0.00,,,0.00,Wunderground v.1.15,2013-10-03 02:32:00,
2013-10-02 21:33:00,67.9,53.5,29.94,SE,124,3.0,3.0,60,0.00,,,0.00,Wunderground v.1.15,2013-10-03 02:33:00,
2013-10-02 21:36:00,67.8,52.9,29.94,ESE,117,2.0,5.0,59,0.00,,,0.00,Wunderground v.1.15,2013-10-03 02:36:00,
2013-10-02 21:37:00,67.8,52.9,29.94,ESE,116,2.0,5.0,59,0.00,,,0.00,Wunderground v.1.15,2013-10-03 02:37:00,
2013-10-02 21:38:00,67.8,53.4,29.94,ESE,115,2.0,5.0,60,0.00,,,0.00,Wunderground v.1.15,2013-10-03 02:38:00,
2013-10-02 21:40:00,67.7,53.3,29.94,ESE,109,2.0,2.0,60,0.00,,,0.00,Wunderground v.1.15,2013-10-03 02:40:00,
2013-10-02 21:42:00,67.7,53.3,29.94,ESE,107,2.0,5.0,60,0.00,,,0.00,Wunderground v.1.15,2013-10-03 02:42:00,
2013-10-02 21:44:00,67.6,53.2,29.94,ESE,108,2.0,5.0,60,0.00,,,0.00,Wunderground v.1.15,2013-10-03 02:44:00,
2013-10-02 21:45:00,67.6,53.2,29.94,ESE,105,2.0,5.0,60,0.00,,,0.00,Wunderground v.1.15,2013-10-03 02:45:00,
2013-10-02 21:46:00,67.5,53.1,29.94,ESE,103,2.0,5.0,60,0.00,,,0.00,Wunderground v.1.15,2013-10-03 02:46:00,
2013-10-02 21:48:00,67.5,53.1,29.94,ESE,104,2.0,5.0,60,0.00,,,0.00,Wunderground v.1.15,2013-10-03 02:48:00,
2013-10-02 21:50:00,67.5,53.1,29.94,ESE,105,2.0,2.0,60,0.00,,,0.00,Wunderground v.1.15,2013-10-03 02:50:00,
2013-10-02 21:52:00,67.4,53.0,29.94,ESE,109,2.0,2.0,60,0.00,,,0.00,Wunderground v.1.15,2013-10-03 02:52:00,
2013-10-02 21:53:00,67.4,53.0,29.94,ESE,107,2.0,2.0,60,0.00,,,0.00,Wunderground v.1.15,2013-10-03 02:53:00,
2013-10-02 21:58:00,67.2,53.3,29.94,ESE,109,2.0,2.0,61,0.00,,,0.00,Wunderground v.1.15,2013-10-03 02:58:00,
2013-10-02 21:59:00,67.2,53.3,29.94,ESE,109,1.0,2.0,61,0.00,,,0.00,Wunderground v.1.15,2013-10-03 02:59:00,
2013-10-02 22:00:00,67.1,53.2,29.94,ESE,109,1.0,2.0,61,0.00,,,0.00,Wunderground v.1.15,2013-10-03 03:00:00,
2013-10-02 22:02:00,67.1,53.2,29.94,ESE,107,1.0,2.0,61,0.00,,,0.00,Wunderground v.1.15,2013-10-03 03:02:00,
2013-10-02 22:05:00,67.0,53.1,29.94,ESE,107,1.0,2.0,61,0.00,,,0.00,Wunderground v.1.15,2013-10-03 03:05:00,
2013-10-02 22:06:00,66.9,53.0,29.94,ESE,107,1.0,2.0,61,0.00,,,0.00,Wunderground v.1.15,2013-10-03 03:06:00,
2013-10-02 22:08:00,66.8,53.4,29.94,ESE,107,1.0,2.0,62,0.00,,,0.00,Wunderground v.1.15,2013-10-03 03:08:00,
2013-10-02 22:11:00,66.7,53.3,29.94,ESE,117,1.0,1.0,62,0.00,,,0.00,Wunderground v.1.15,2013-10-03 03:11:00,
2013-10-02 22:13:00,66.6,53.2,29.94,ESE,117,1.0,1.0,62,0.00,,,0.00,Wunderground v.1.15,2013-10-03 03:13:00,
2013-10-02 22:16:00,66.4,53.4,29.94,ESE,117,1.0,1.0,63,0.00,,,0.00,Wunderground v.1.15,2013-10-03 03:16:00,
2013-10-02 22:18:00,66.3,53.3,29.94,ESE,117,1.0,1.0,63,0.00,,,0.00,Wunderground v.1.15,2013-10-03 03:18:00,
2013-10-02 22:19:00,66.3,53.3,29.94,ESE,117,1.0,1.0,63,0.00,,,0.00,Wunderground v.1.15,2013-10-03 03:19:00,
2013-10-02 22:22:00,66.2,53.7,29.94,ESE,117,1.0,2.0,64,0.00,,,0.00,Wunderground v.1.15,2013-10-03 03:22:00,
2013-10-02 22:24:00,66.1,53.6,29.94,ESE,117,1.0,2.0,64,0.00,,,0.00,Wunderground v.1.15,2013-10-03 03:24:00,
2013-10-02 22:25:00,66.0,53.5,29.95,ESE,117,0.0,2.0,64,0.00,,,0.00,Wunderground v.1.15,2013-10-03 03:25:00,
2013-10-02 22:26:00,66.0,53.5,29.94,ESE,117,0.0,2.0,64,0.00,,,0.00,Wunderground v.1.15,2013-10-03 03:26:00,
2013-10-02 22:28:00,65.9,53.4,29.94,ESE,117,0.0,2.0,64,0.00,,,0.00,Wunderground v.1.15,2013-10-03 03:28:00,
2013-10-02 22:30:00,65.9,53.8,29.94,ESE,117,0.0,0.0,65,0.00,,,0.00,Wunderground v.1.15,2013-10-03 03:30:00,
2013-10-02 22:31:00,65.8,53.7,29.94,ESE,117,0.0,0.0,65,0.00,,,0.00,Wunderground v.1.15,2013-10-03 03:31:00,
2013-10-02 22:32:00,65.8,53.7,29.94,ESE,117,0.0,1.0,65,0.00,,,0.00,Wunderground v.1.15,2013-10-03 03:32:00,
2013-10-02 22:36:00,65.6,53.9,29.94,ESE,116,0.0,3.0,66,0.00,,,0.00,Wunderground v.1.15,2013-10-03 03:36:00,
2013-10-02 22:38:00,65.5,53.8,29.94,ESE,116,1.0,3.0,66,0.00,,,0.00,Wunderground v.1.15,2013-10-03 03:38:00,
2013-10-02 22:39:00,65.5,53.8,29.94,ESE,117,1.0,3.0,66,0.00,,,0.00,Wunderground v.1.15,2013-10-03 03:39:00,
2013-10-02 22:42:00,65.3,53.6,29.94,ESE,117,1.0,1.0,66,0.00,,,0.00,Wunderground v.1.15,2013-10-03 03:42:00,
2013-10-02 22:45:00,65.2,54.0,29.94,ESE,117,0.0,3.0,67,0.00,,,0.00,Wunderground v.1.15,2013-10-03 03:45:00,
2013-10-02 22:47:00,65.2,54.4,29.94,ESE,117,0.0,3.0,68,0.00,,,0.00,Wunderground v.1.15,2013-10-03 03:47:00,
2013-10-02 22:48:00,65.2,54.4,29.94,ESE,117,0.0,3.0,68,0.00,,,0.00,Wunderground v.1.15,2013-10-03 03:48:00,
2013-10-02 22:49:00,65.1,54.3,29.94,ESE,117,0.0,3.0,68,0.00,,,0.00,Wunderground v.1.15,2013-10-03 03:49:00,
2013-10-02 22:50:00,65.1,54.7,29.94,ESE,117,0.0,1.0,69,0.00,,,0.00,Wunderground v.1.15,2013-10-03 03:50:00,
2013-10-02 22:52:00,65.0,54.6,29.94,ESE,117,1.0,1.0,69,0.00,,,0.00,Wunderground v.1.15,2013-10-03 03:52:00,
2013-10-02 22:55:00,65.0,54.6,29.94,ESE,117,0.0,2.0,69,0.00,,,0.00,Wunderground v.1.15,2013-10-03 03:55:00,
2013-10-02 22:57:00,64.9,54.5,29.94,ESE,117,1.0,2.0,69,0.00,,,0.00,Wunderground v.1.15,2013-10-03 03:57:00,
2013-10-02 22:58:00,64.9,54.5,29.94,ESE,117,1.0,2.0,69,0.00,,,0.00,Wunderground v.1.15,2013-10-03 03:58:00,
2013-10-02 22:59:00,64.9,54.5,29.94,ESE,116,1.0,2.0,69,0.00,,,0.00,Wunderground v.1.15,2013-10-03 03:59:00,
2013-10-02 23:01:00,64.8,54.4,29.94,ESE,117,0.0,1.0,69,0.00,,,0.00,Wunderground v.1.15,2013-10-03 04:01:00,
2013-10-02 23:02:00,64.8,54.4,29.94,ESE,117,0.0,1.0,69,0.00,,,0.00,Wunderground v.1.15,2013-10-03 04:02:00,
2013-10-02 23:03:00,64.8,54.4,29.94,ESE,117,0.0,2.0,69,0.00,,,0.00,Wunderground v.1.15,2013-10-03 04:03:00,
2013-10-02 23:04:00,64.8,54.8,29.94,ESE,117,1.0,2.0,70,0.00,,,0.00,Wunderground v.1.15,2013-10-03 04:04:00,
2013-10-02 23:06:00,64.7,54.7,29.94,ESE,117,0.0,2.0,70,0.00,,,0.00,Wunderground v.1.15,2013-10-03 04:06:00,
2013-10-02 23:07:00,64.7,54.7,29.94,ESE,117,0.0,2.0,70,0.00,,,0.00,Wunderground v.1.15,2013-10-03 04:07:00,
2013-10-02 23:09:00,64.6,55.0,29.94,ESE,117,0.0,2.0,71,0.00,,,0.00,Wunderground v.1.15,2013-10-03 04:09:00,
2013-10-02 23:10:00,64.6,55.0,29.94,ESE,117,0.0,0.0,71,0.00,,,0.00,Wunderground v.1.15,2013-10-03 04:10:00,
2013-10-02 23:14:00,64.5,55.3,29.94,ESE,117,0.0,2.0,72,0.00,,,0.00,Wunderground v.1.15,2013-10-03 04:14:00,
2013-10-02 23:15:00,64.5,55.3,29.94,ESE,117,0.0,2.0,72,0.00,,,0.00,Wunderground v.1.15,2013-10-03 04:15:00,
2013-10-02 23:18:00,64.5,55.3,29.94,ESE,117,1.0,2.0,72,0.00,,,0.00,Wunderground v.1.15,2013-10-03 04:18:00,
2013-10-02 23:19:00,64.4,55.2,29.94,ESE,117,1.0,2.0,72,0.00,,,0.00,Wunderground v.1.15,2013-10-03 04:19:00,
2013-10-02 23:20:00,64.4,55.2,29.94,ESE,117,1.0,1.0,72,0.00,,,0.00,Wunderground v.1.15,2013-10-03 04:20:00,
2013-10-02 23:21:00,64.3,55.5,29.94,ESE,117,1.0,1.0,73,0.00,,,0.00,Wunderground v.1.15,2013-10-03 04:21:00,
2013-10-02 23:23:00,64.3,55.5,29.94,ESE,117,0.0,1.0,73,0.00,,,0.00,Wunderground v.1.15,2013-10-03 04:23:00,
2013-10-02 23:24:00,64.3,55.5,29.94,ESE,117,0.0,1.0,73,0.00,,,0.00,Wunderground v.1.15,2013-10-03 04:24:00,
2013-10-02 23:25:00,64.3,55.8,29.94,ESE,117,0.0,1.0,74,0.00,,,0.00,Wunderground v.1.15,2013-10-03 04:25:00,
2013-10-02 23:26:00,64.2,55.7,29.93,ESE,117,0.0,3.0,74,0.00,,,0.00,Wunderground v.1.15,2013-10-03 04:26:00,
2013-10-02 23:30:00,64.2,56.1,29.93,ESE,117,1.0,1.0,75,0.00,,,0.00,Wunderground v.1.15,2013-10-03 04:30:00,
2013-10-02 23:32:00,64.2,56.1,29.93,ESE,117,1.0,1.0,75,0.00,,,0.00,Wunderground v.1.15,2013-10-03 04:32:00,
2013-10-02 23:33:00,64.2,56.1,29.93,ESE,118,1.0,2.0,75,0.00,,,0.00,Wunderground v.1.15,2013-10-03 04:33:00,
2013-10-02 23:34:00,64.2,56.1,29.93,ESE,119,1.0,2.0,75,0.00,,,0.00,Wunderground v.1.15,2013-10-03 04:34:00,
2013-10-02 23:37:00,64.3,56.2,29.93,ESE,119,1.0,2.0,75,0.00,,,0.00,Wunderground v.1.15,2013-10-03 04:37:00,
2013-10-02 23:38:00,64.3,56.6,29.93,ESE,119,1.0,2.0,76,0.00,,,0.00,Wunderground v.1.15,2013-10-03 04:38:00,
2013-10-02 23:43:00,64.3,56.6,29.93,ESE,119,1.0,2.0,76,0.00,,,0.00,Wunderground v.1.15,2013-10-03 04:43:00,
2013-10-02 23:44:00,64.3,56.6,29.93,ESE,119,1.0,2.0,76,0.00,,,0.00,Wunderground v.1.15,2013-10-03 04:44:00,
2013-10-02 23:45:00,64.3,56.6,29.93,ESE,119,0.0,2.0,76,0.00,,,0.00,Wunderground v.1.15,2013-10-03 04:45:00,
2013-10-02 23:46:00,64.3,56.6,29.93,ESE,119,0.0,2.0,76,0.00,,,0.00,Wunderground v.1.15,2013-10-03 04:46:00,
2013-10-02 23:49:00,64.2,56.5,29.93,ESE,119,0.0,2.0,76,0.00,,,0.00,Wunderground v.1.15,2013-10-03 04:49:00,
2013-10-02 23:50:00,64.2,56.8,29.93,ESE,119,1.0,2.0,77,0.00,,,0.00,Wunderground v.1.15,2013-10-03 04:50:00,
2013-10-02 23:51:00,64.2,56.8,29.93,ESE,119,0.0,2.0,77,0.00,,,0.00,Wunderground v.1.15,2013-10-03 04:51:00,
2013-10-02 23:52:00,64.2,56.8,29.93,ESE,119,0.0,2.0,77,0.00,,,0.00,Wunderground v.1.15,2013-10-03 04:52:00,
2013-10-02 23:54:00,64.1,56.7,29.93,ESE,119,0.0,2.0,77,0.00,,,0.00,Wunderground v.1.15,2013-10-03 04:54:00,
2013-10-02 23:55:00,64.1,57.1,29.93,ESE,119,0.0,2.0,78,0.00,,,0.00,Wunderground v.1.15,2013-10-03 04:55:00,
2013-10-02 23:56:00,64.1,57.1,29.93,ESE,119,0.0,2.0,78,0.00,,,0.00,Wunderground v.1.15,2013-10-03 04:56:00,
2013-10-02 23:57:00,64.1,57.1,29.93,ESE,119,0.0,2.0,78,0.00,,,0.00,Wunderground v.1.15,2013-10-03 04:57:00,
2013-10-02 23:59:00,64.0,57.0,29.92,ESE,119,0.0,2.0,78,0.00,,,0.00,Wunderground v.1.15,2013-10-03 04:59:00,